     2              OBSERVATION DATA    GPS                 RINEX VERSION / TYPE
ASRINEXO V2.2.0 UX USGS 15-AUG-94 14:00                     PGM / RUN BY / DATE
                                                            COMMENT
Original Marker Name: CALI                                  COMMENT
Campaign Name: USGS-Loma Prieta Profile                     COMMENT
4-Character Station Name: CALI                              COMMENT
6-Character Antenna Code: ASHP12                            COMMENT
Vertical Measurement Point: EGP                             COMMENT
Vertical Offset to Rinex Ref. Point: 0.0593                 COMMENT
Radial Measurement Point: EGP                               COMMENT
Radial Offset to Rinex Ref. Point: 0.1425                   COMMENT
Antenna Height from Field Measurement: 1.4190 m             COMMENT
Additional Antenna Identification Info.:                    COMMENT
Ashtech L1/L2 Revision B                                    COMMENT
Original XYZ: -2595717.2800 -4539673.1100 3642060.4700      COMMENT
New XYZ position is based on association with SCEC monument COMMENT
E1E9P8X1+0101. Position of that monument is believed to be  COMMENT
valid to within 1 m horizontally; vertical accuracy         COMMENT
should be no worse than 3-times this value.                 COMMENT
                                                            COMMENT
Revised Rinex header created by UCSD GPS archive for        COMMENT
GSAC on 24-Nov-2001 (2001:328) 15:52:03 GMT                 COMMENT
For assistance contact dagnew@ucsd.edu or hjohnson@ucsd.edu COMMENT
                                                            COMMENT
CALIENTE 1959 DWR                                           MARKER NAME
                                                            MARKER NUMBER
CHS US GEOLOGICAL SURVEY                                    OBSERVER / AGENCY
831 ASHTECH L-XII 6A                                        REC # / TYPE / VERS
27 ASHTECH GEODETIC P                                       ANT # / TYPE
 -2595709.7101 -4539655.3907  3642044.9284                  APPROX POSITION XYZ
        1.3525        0.0000        0.0000                  ANTENNA: DELTA H/E/N
     1     2     0                                          WAVELENGTH FACT L1/2
     3    C1    L1    L2                                    # / TYPES OF OBSERV
    30                                                      INTERVAL
  1991     5     8    18    58   30.000000                  TIME OF FIRST OBS
  1991     5     8    22    11   30.000000                  TIME OF LAST OBS
                                                            END OF HEADER
 91  5  8 18 58 30.0000000  0  6  2 19 11  6 16 18
  23481877.439    -2310294.978 6  -1800230.085 5
  20749398.990     -114942.164 8    -89565.687 9
  23693362.422    -1590494.846 6  -1239346.604 3
  24835884.070     -595018.850 3   -463651.171 3
  24285093.983    -1672078.071 6  -1302918.025 3
  20684864.473      844067.106 9    657714.477 9
 91  5  8 18 59  0.0000000  0  6  2 19 11  6 16 18
  23464768.879    -2400194.837 6  -1870281.678 5
  20749693.986     -113392.226 7    -88357.949 8
  23682409.217    -1648081.526 6  -1284219.134 3
  24822980.716     -662847.539 3   -516504.512 1
  24273616.730    -1732413.428 6  -1349932.602 2
  20693379.778      888815.658 9    692583.398 9
 91  5  8 18 59 30.0000000  0  6  2 19 11  6 16 18
  23447760.152    -2489625.465 6  -1939967.636 2
  20750067.229     -111393.487 8    -86800.494 9
  23671571.410    -1705001.456 6  -1328572.214 2
  24810142.399     -730325.394 3   -569084.446 3
  24262258.488    -1792038.595 5  -1396393.786 3
  20702030.583      934269.495 9    728001.910 8
 91  5  8 19  0  0.0000000  0  6  2 19 11  6 16 18
  23430824.280    -2578571.847 6  -2009276.269 4
  20750536.395     -108932.463 8    -84882.806 9
  23660874.810    -1761237.832 6  -1372392.554 2
  24797367.635     -797438.924 4   -621380.518 1
  24251057.944    -1850938.160 5  -1442289.546 2
  20710816.297      980442.026 9    763980.434 9
 91  5  8 19  0 30.0000000  0  6  2 19 11  6 16 18
  23413997.227    -2667013.892 6  -2078192.401 3
  20751101.817     -105990.739 7    -82590.563 8
  23650308.930    -1816769.423 6  -1415663.803 3
  24784669.932     -864170.122 4   -673378.644 4
  24239995.309    -1909091.727 5  -1487603.998 1
  20719743.514     1027351.456 9    800533.165 9
 91  5  8 19  1  0.0000000  0  6  2 19 11  6 16 18
  23397264.003    -2754933.606 6  -2146701.010 4
  20751753.269     -102551.623 7    -79910.732 9
  23639877.051    -1871576.618 6  -1458370.570 1
  24772052.866     -930502.430 4   -725066.005 2
  24229070.862    -1966480.196 5  -1532322.284 2
  20728812.549     1075014.221 9    837672.901 9
 91  5  8 19  1 30.0000000  0  6  2 19 11  6 16 18
  23380633.318    -2842307.016 6  -2214783.955 5
  20752506.944      -98592.819 8    -76825.946 8
  23629591.473    -1925634.052 6  -1500493.083 3
  24759503.246     -996413.858 5   -776425.309 1
  24218301.111    -2023079.702 6  -1576425.829 2
  20738031.465     1123452.561 9    875416.988 9
 91  5  8 19  2  0.0000000  0  6  2 19 11  6 16 18
  23364118.955    -2929116.376 6  -2282427.349 4
  20753361.341      -94098.132 8    -73323.594 9
  23619449.197    -1978922.203 6  -1542016.218 1
  24747042.970    -1061888.389 5   -827444.329 1
  24207683.962    -2078872.280 5  -1619900.599 2
  20747397.869     1172682.406 9    913777.819 8
 91  5  8 19  2 30.0000000  0  6  2 19 11  6 16 18
  23347708.317    -3015350.702 6  -2349622.669 2
  20754318.590      -89058.056 7    -69396.264 8
  23609454.707    -2031428.616 6  -1582930.116 3
  24734669.038    -1126916.511 5   -878115.399
  24197223.010    -2133845.395 6  -1662736.772 2
  20756919.284     1222712.899 9    952762.542 8
 91  5  8 19  3  0.0000000  0  6  2 19 11  6 16 18
  23331398.715    -3101033.251 6  -2416388.060 3
  20755377.156      -83497.539 7    -65063.382 8
  23599611.633    -2083175.224 6  -1623252.019 2
  24722377.855    -1191523.540 5   -928458.369 2
  24186908.658    -2188022.606 6  -1704952.771 2
  20766588.798     1273518.656 9    992351.354 7
 91  5  8 19  3 30.0000000  0  6  2 19 11  6 16 18
  23315200.917    -3186175.066 6  -2482732.095 5
  20756532.255      -77428.799 8    -60334.493 8
  23589904.653    -2134171.650 6  -1662989.309 2
  24710157.118    -1255721.835 4   -978482.818 1
  24176754.079    -2241414.093 5  -1746556.531 1
  20776400.096     1325087.299 9   1032534.637 7
 91  5  8 19  4  0.0000000  0  6  2 19 11  6 16 18
  23299090.684    -3270795.549 6  -2548669.891 4
  20757780.591      -70872.772 7    -55225.894 8
  23580341.567    -2184436.084 6  -1702156.284 2
  24698018.224    -1319532.771 4  -1028205.417 2
  24166745.210    -2294038.913 5  -1787562.886 2
  20786355.602     1377397.117 9   1073295.459 7
 91  5  8 19  4 30.0000000  0  6  2 19 11  6 16 18
  23283085.362    -3354921.693 6  -2614222.480 2
  20759115.271      -63857.217 7    -49759.223 8
  23570909.794    -2233993.289 6  -1740772.128 2
  24685938.380    -1382984.752 4  -1077648.296 2
  24156867.654    -2345923.566 5  -1827992.486 3
  20796444.830     1430420.277 9   1114612.124 9
 91  5  8 19  5  0.0000000  0  6  2 19 11  6 16 18
  23267170.274    -3438565.933 6  -2679399.568 4
  20760536.277      -56396.611 7    -43945.752 9
  23561615.337    -2282854.561 6  -1778845.646 3
  24673933.485    -1446092.027 4  -1126822.572 2
  24147137.587    -2397080.548 5  -1867855.042 1
  20806669.540     1484141.991 9   1156473.112 8
 91  5  8 19  5 30.0000000  0  6  2 19 11  6 16 18
  23251341.531    -3521748.902 6  -2744217.245 2
  20762037.345      -48512.843 7    -37802.567 8
  23552441.077    -2331039.425 6  -1816392.145 3
  24661987.363    -1508877.212 4  -1175746.304 2
  24137527.438    -2447530.378 5  -1907166.595 2
  20817022.877     1538539.938 9   1198861.032 8
 91  5  8 19  6 30.0000000  0  5  2 19 11 16 18
  23220181.096      -62035.39116    -48336.436 2
  20765508.333        9679.69717      7542.599 8
  23534727.553      -34850.69016    -27153.733 3
  24118969.393      -36538.46315    -28471.858 2
  20838339.923       32406.03619     25250.162 7
 91  5  8 19  7  0.0000000  0  6  2 19 11  6 16 18
  23204867.710     -142510.767 6   -111044.312 2
  20767502.265       20147.623 7     15699.419 9
  23526193.663      -79673.768 6    -62080.634 4
  24626991.981      -37269.87215    -29039.427 3
  24110023.871      -83539.526 5    -65096.011 1
  20849328.203       90144.573 8     70241.145 8
 91  5  8 19  7 30.0000000  0  6  2 19 11  6 16 18
  23189643.337     -222501.044 6   -173374.169 4
  20769577.113       31057.010 7     24200.243 8
  23517800.074     -123790.713 6    -96457.308 4
  24615542.614      -97435.183 5    -75921.246 2
  24101215.978     -129807.841 6   -101149.260 4
  20860447.517      148575.967 8    115772.009 8
 91  5  8 19  8  0.0000000  0  6  2 19 11  6 16 18
  23174508.624     -302028.607 6   -235343.465 4
  20771728.725       42383.904 7     33026.390 9
  23509533.888     -167222.966 6   -130300.455 4
  24604158.894     -157285.530 5   -122558.109 3
  24092551.666     -175365.869 6   -136649.007 3
  20871693.030      207674.958 8    161823.077 8
 91  5  8 19  8 30.0000000  0  6  2 19 11  6 16 18
  23159460.236     -381110.796 6   -296965.739 3
  20773961.288       54110.179 7     42163.737 8
  23501397.515     -209986.128 6   -163622.253 4
  24592819.237     -216839.565 5   -168963.616 1
  24084013.588     -220230.196 6   -171608.201 3
  20883063.854      267422.825 8    208379.757 9
 91  5  8 19  9  0.0000000  0  6  2 19 11  6 16 18
  23144494.598     -459767.565 6   -358256.496 3
  20776267.282       66214.364 7     51595.555 8
  23493383.467     -252098.871 6   -196437.215 3
  24581540.446     -276118.808 5   -215155.035 3
  24075606.213     -264420.429 5   -206042.094 2
  20894552.798      327798.244 8    255425.433 8
 91  5  8 19  9 30.0000000  0  6  2 19 11  6 16 18
  23129605.706     -538012.037 6   -419225.997 2
  20778643.444       78681.858 7     61310.475 8
  23485491.135     -293573.012 6   -228754.588 3
  24570309.328     -335138.308 5   -261144.062 2
  24067320.535     -307949.748 6   -239961.020 2
  20906159.566      388785.610 8    302947.954 9
 91  5  8 19 10  0.0000000  0  6  2 19 11  6 16 18
  23114793.856     -615846.386 6   -479875.906 4
  20781080.750       91509.421 8     71305.972 8
  23477717.814     -334409.184 6   -260574.818 3
  24559123.477     -393901.614 5   -306933.414 3
  24059164.094     -350819.297 6   -273365.815 3
  20917879.045      450381.329 8    350944.520 8
 91  5  8 19 10 30.0000000  0  6  2 19 11  6 16 18
  23100059.067     -693274.391 6   -540209.194 4
  20783593.023      104692.184 7     81578.243 8
  23470071.303     -374609.828 6   -291899.848 3
  24547989.785     -452414.116 5   -352527.368 2
  24051129.351     -393033.391 6   -306259.896 2
  20929714.568      512579.959 8    399410.884 8
 91  5  8 19 11  0.0000000  0  6  2 19 11  6 16 18
  23085395.911     -770309.293 6   -600236.191 5
  20786165.534      118215.566 7     92115.939 8
  23462536.927     -414186.998 6   -322739.048 2
  24536908.251     -510690.928 5   -397937.650 2
  24043220.232     -434604.661 6   -338653.063 2
  20941661.284      575365.688 7    448334.715 9
 91  5  8 19 11 30.0000000  0  6  2 19 11  6 16 18
  23070812.816     -846957.690 6   -659961.977 4
  20788805.805      132071.655 7    102912.887 8
  23455125.453     -453145.722 6   -353096.351 3
  24525857.604     -568739.757 5   -443170.314 2
  24035425.324     -475538.608 6   -370549.563 2
  20953722.246      638730.527 7    497709.808 8
 91  5  8 19 12  0.0000000  0  6  2 19 11  6 16 18
  23056298.650     -923221.001 6   -719387.719 4
  20791498.251      146257.938 8    113967.114 8
  23447825.207     -491486.408 6   -382972.062 2
  24514851.018     -626563.998 5   -488227.941 2
  24027762.619     -515837.320 6   -401951.141 3
  20965889.323      702670.877 8    547533.352 8
 91  5  8 19 12 30.0000000  0  6  2 19 11  6 16 18
  23041855.262     -999109.352 7   -778521.279 4
  20794258.736      160762.536 8    125269.384 8
  23440646.082     -529217.548 6   -412372.807 2
  24503885.214     -684175.212 5   -533119.615 2
  24020210.846     -555509.998 6   -432864.887 2
  20978164.626      767174.715 8    597795.973 8
 91  5  8 19 13  0.0000000  0  6  2 19 11  6 16 18
  23027486.211    -1074633.648 7   -837371.176 5
  20797083.682      175573.472 7    136810.361 8
  23433579.669     -566349.024 6   -441306.281 3
  24492961.378     -741586.249 5   -577855.287 2
  24012779.897     -594568.087 6   -463299.750 3
  20990545.154      832229.631 8    648488.005 7
 91  5  8 19 13 30.0000000  0  6  2 19 11  6 16 18
  23013181.308    -1149797.235 6   -895939.991 4
  20799951.800      190686.313 8    148586.589 8
  23426631.376     -602882.971 6   -469774.117 4
  24482074.414     -798801.818 5   -622438.644 1
  24005467.663     -633014.851 6   -493258.225 3
  21003024.015      897829.753 8    699604.879 7
 91  5  8 19 14  0.0000000  0  6  2 19 11  6 16 18
  22998946.258    -1224600.465 7   -954227.991 3
  20802886.769      206099.619 8    160596.953 8
  23419791.920     -638818.613 6   -497775.762 3
  24471226.730     -855823.960 5   -666871.235 3
  23998263.951     -670849.759 6   -522739.957 2
  21015613.492      963972.662 8    751144.709 7
 91  5  8 19 14 30.0000000  0  6  2 19 11  6 16 18
  22984780.468    -1299042.379 7  -1012234.433 5
  20805878.382      221812.664 8    172840.884 8
  23413068.474     -674153.422 6   -525309.196 2
  24460411.714     -912653.225 5   -711153.570 2
  23991179.250     -708071.708 6   -551744.040 5
  21028301.615     1030657.349 8    803106.695 7
 91  5  8 19 15  0.0000000  0  6  2 19 11  6 16 18
  22970677.638    -1373135.029 7  -1069968.766 3
  20808920.688      237812.934 8    185308.610 8
  23406456.848     -708898.035 6   -552382.746 4
  24449633.866     -969303.311 5   -755296.295 1
  23984211.169     -744693.070 6   -580280.167 2
  21041096.446     1097869.890 8    855479.993 6
 91  5  8 19 15 30.0000000  0  6  2 19 11  6 16 18
  22956648.850    -1446876.373 7  -1127429.331 5
  20812023.529      254101.084 8    198000.676 8
  23399954.042     -743049.815 6   -578994.338 4
  24438881.216    -1025773.906 5   -799299.192 2
  23977355.816     -780711.970 6   -608346.824 4
  21053984.531     1165610.245 8    908264.583 7
 91  5  8 19 16  0.0000000  0  6  2 19 11  6 16 18
  22942684.208    -1520272.382 7  -1184620.830 3
  20815171.949      270670.360 8    210911.783 8
  23393570.264     -776612.859 6   -605147.221 3
  24428168.423    -1082072.101 4   -843168.121 3
  23970616.193     -816133.332 6   -635947.894 4
  21066974.840     1233871.190 8    961454.821 6
 91  5  8 19 16 30.0000000  0  6  2 19 11  6 16 18
  22928782.231    -1593320.536 7  -1241541.244 5
  20818380.032      287522.186 8    224043.068 8
  23387297.416     -809583.567 6   -630838.498 2
  24417493.427    -1138196.996 4   -886901.634 3
  23963990.467     -850954.628 6   -663081.378 3
  21080062.869     1302652.405 8   1015050.464 7
 91  5  8 19 17  0.0000000  0  6  2 19 11  6 16 18
  22914946.215    -1666023.416 7  -1298192.655 3
  20821639.977      304652.449 8    237391.316 8
  23381132.778     -841963.654 6   -656069.604 2
  24406840.889    -1194152.831 4   -930503.365 1
  23957479.581     -885178.882 6   -689749.618 3
  21093248.045     1371949.617 8   1069048.183 7
 91  5  8 19 17 30.0000000  0  6  2 19 11  6 16 18
  22901174.643    -1738388.671 7  -1354580.973 4
  20824951.784      322052.338 8    250949.664 7
  23375084.759     -873759.284 6   -680845.243 2
  24396218.645    -1249948.768 5   -973980.483 2
  23951078.109     -918812.750 6   -715957.828 4
  21106532.459     1441753.568 8   1123440.745 7
 91  5  8 19 18  0.0000000  0  6  2 19 11  6 16 18
  22887470.533    -1810421.114 7  -1410709.949 5
  20828316.954      339716.322 8    264713.801 8
  23369142.280     -904974.096 6   -705168.364 2
  24385635.384    -1305590.865 5  -1017337.755 2
  23944788.474     -951861.076 6   -741709.775 3
  21119910.093     1512057.544 8   1178222.938 7
 91  5  8 19 18 30.0000000  0  6  2 19 11  6 16 18
  22873825.475    -1882126.977 7  -1466584.469 4
  20831725.296      357636.664 8    278677.690 8
  23363311.324     -935613.493 6   -729043.088 3
  24375078.788    -1361087.525 5  -1060581.715 1
  23938608.846     -984330.488 6   -767010.590 3
  21133382.167     1582852.723 8   1233387.903 6
 91  5  8 19 19  0.0000000  0  6  2 19 11  6 16 18
  22860237.688    -1953515.378 7  -1522211.619 3
  20835178.903      375803.169 8    292833.400 8
  23357590.375     -965685.428 6   -752475.611 3
  24364544.074    -1416449.322 5  -1103720.557 3
  23932537.444    -1016229.794 6   -791867.206 3
  21146943.569     1654127.658 8   1288926.691 6
 91  5  8 19 19 30.0000000  0  6  2 19 11  6 16 18
  22846712.845    -2024595.593 7  -1577598.620 4
  20838682.575      394205.776 8    307173.088 7
  23351973.167     -995198.063 6   -775472.368 2
  24354031.557    -1471686.802 5  -1146762.502 2
  23926577.881    -1047568.640 6   -816287.081 2
  21160600.022     1725871.320 8   1344830.729 7
 91  5  8 19 20  0.0000000  0  6  2 19 11  6 16 18
  22833242.271    -2095364.462 7  -1632743.011 4
  20842229.123      412847.255 8    321698.920 7
  23346461.778    -1024146.803 6   -798029.690 2
  24343545.110    -1526798.012 4  -1189706.116 2
  23920715.428    -1078342.765 6   -840266.914 3
  21174341.911     1798085.431 8   1401101.354 7
 91  5  8 19 20 30.0000000  0  6  2 19 11  6 16 18
  22819839.754    -2165823.468 7  -1687645.946 4
  20845821.843      431725.213 8    336409.008 8
  23341061.616    -1052531.680 6   -820147.681 2
  24333084.158    -1581785.643 4  -1232553.859 3
  23914963.609    -1108553.476 6   -863807.726 4
  21188172.535     1870766.864 8   1457736.116 6
 91  5  8 19 21  0.0000000  0  6  2 19 11  6 16 18
  22806488.191    -2235965.427 7  -1742301.869 4
  20849458.923      450845.160 8    351307.664 7
  23335770.885    -1080344.933 6   -841820.254 3
  24322637.882    -1636644.507 4  -1275300.857 2
  23909327.224    -1138194.340 6   -886904.503 3
  21202092.800     1943919.623 8   1514738.153 7
 91  5  8 19 21 30.0000000  0  6  2 19 11  6 16 18
  22793204.090    -2305786.575 7  -1796707.773 4
  20853145.770      470209.982 8    366397.132 8
  23330586.564    -1107581.681 6   -863043.560 4
  24312220.102    -1691372.291 4  -1317946.122 2
  23903794.545    -1167261.535 6   -909554.261 3
  21216100.596     2017545.776 8   1572109.058 6
 91  5  8 19 22  0.0000000  0  6  2 19 11  6 16 18
  22779976.354    -2375291.899 7  -1850867.614 3
  20856879.383      489813.310 8    381672.458 9
  23325510.488    -1134245.985 6   -883820.862 3
  24301824.205    -1745975.481 5  -1360494.250 2
  23898374.891    -1195760.669 6   -931761.378 4
  21230204.927     2091638.465 8   1629843.491 6
 91  5  8 19 22 30.0000000  0  6  2 19 11  6 16 18
  22766811.264    -2444477.698 7  -1904778.455 4
  20860651.963      509658.101 8    397135.926 8
  23320548.920    -1160332.933 6   -904148.232 3
  24291459.473    -1800451.780 5  -1402943.245 3
  23893061.370    -1223686.948 6   -953522.147 4
  21244391.413     2166199.213 8   1687942.651 6
 91  5  8 19 23  0.0000000  0  6  2 19 11  6 16 18
  22753704.336    -2513342.092 7  -1958438.884 4
  20864477.924      529745.637 8    412788.560 8
  23315690.186    -1185839.285 6   -924023.214 2
  24281118.125    -1854800.507 5  -1445292.682 2
  23887855.481    -1251038.533 6   -974835.072 4
  21258671.135     2241227.289 8   1746405.972 6
 91  5  8 19 23 30.0000000  0  6  2 19 11  6 16 18
  22740660.961    -2581890.200 7  -2011852.839 3
  20868345.241      550069.488 8    428625.333 7
  23310951.667    -1210769.620 6   -943449.338 2
  24270801.679    -1909028.576 5  -1487548.141 1
  23882759.302    -1277821.035 6   -995704.552 2
  21273034.776     2316715.937 8   1805228.179 6
 91  5  8 19 24  0.0000000  0  6  2 19 11  6 16 18
  22727679.657    -2650115.850 7  -2065015.521 3
  20872259.639      570635.032 8    444650.439 8
  23306315.981    -1235116.374 7   -962420.764 2
  24260500.204    -1963131.031 5  -1529705.664 3
  23877771.960    -1304027.808 6  -1016125.421 2
  21287487.779     2392669.777 7   1864412.865 7
 91  5  8 19 24 30.0000000  0  6  2 19 11  6 16 18
  22714755.607    -2718017.569 7  -2117925.800 5
  20876218.395      591443.207 8    460864.601 8
  23301796.602    -1258876.953 6   -980935.375 2
  24250231.711    -2017107.634 5  -1571765.159 1
  23872896.439    -1329658.352 6  -1036097.291 3
  21302029.517     2469087.934 7   1923959.353 6
 91  5  8 19 25  0.0000000  0  6  2 19 11  6 16 18
  22701897.798    -2785585.573 7  -2170576.010 5
  20880223.028      612503.004 8    477274.829 8
  23297386.653    -1282040.690 6   -998984.908 2
  24239987.212    -2070950.247 5  -1613720.199 2
  23868123.141    -1354701.908 6  -1055611.744 2
  21316662.380     2545977.942 7   1983873.513 7
 91  5  8 19 25 30.0000000  0  6  2 19 11  6 16 18
  22689102.967    -2852822.918 7  -2222968.623 4
  20884285.509      633809.763 8    493877.496 8
  23293092.433    -1304610.041 6  -1016571.294 3
  24229766.078    -2124663.521 5  -1655574.512 2
  23863473.356    -1379162.574 6  -1074672.022 2
  21331382.790     2623334.581 7   2044151.284 7
 91  5  8 19 26  0.0000000  0  6  2 19 11  6 16 18
  22676370.782    -2919731.035 7  -2275104.635 4
  20888378.579      655361.005 8    510670.682 8
  23288909.424    -1326585.817 6  -1033695.163 4
  24219568.642    -2178250.555 5  -1697330.475 1
  23858932.112    -1403041.736 6  -1093279.171 3
  21346191.341     2701153.755 7   2104789.458 7
 91  5  8 19 26 30.0000000  0  6  2 19 11  6 16 18
  22663702.447    -2986310.619 7  -2326984.688 4
  20892525.606      677156.337 8    527654.052 9
  23284842.441    -1347967.090 6  -1050355.773 3
  24209397.591    -2231712.630 5  -1738989.042 3
  23854498.779    -1426339.602 6  -1111433.339 3
  21361086.533     2779433.317 7   2165786.398 7
 91  5  8 19 27  0.0000000  0  6  2 19 11  6 16 18
  22651097.963    -3052556.978 7  -2378605.066 3
  20896719.400      699199.283 8    544830.378 8
  23280889.967    -1368747.725 6  -1066548.344 3
  24199247.218    -2285046.398 5  -1780547.621 2
  23850175.470    -1449051.281 6  -1129130.741 2
  21376070.756     2858176.060 8   2227144.257 6
 91  5  8 19 27 30.0000000  0  6  2 19 11  6 16 18
  22638552.862    -3118470.644 7  -2429966.198 5
  20900960.867      721488.638 8    562198.709 8
  23277047.831    -1388927.671 6  -1082272.861 4
  24189123.212    -2338253.814 5  -1822007.736 1
  23845966.687    -1471177.936 6  -1146372.277 4
  21391145.214     2937379.236 8   2288860.896 6
 91  5  8 19 28  0.0000000  0  6  2 19 11  6 16 18
  22626071.297    -3184048.519 7  -2481065.685 5
  20905250.305      744026.058 8    579760.337 9
  23273325.315    -1408503.361 6  -1097526.505 3
  24179023.218    -2391333.511 5  -1863368.378 3
  23841866.724    -1492717.379 6  -1163156.258 4
  21406303.328     3017043.613 7   2350936.910 6
 91  5  8 19 28 30.0000000  0  6  2 19 11  6 16 18
  22613658.084    -3249288.676 7  -2531902.000 5
  20909585.602      766812.868 8    597516.289 8
  23269710.119    -1427472.175 6  -1112307.287 4
  24168947.183    -2444284.893 5  -1904629.030 3
  23837882.473    -1513666.783 6  -1179480.471 3
  21421550.473     3097169.167 7   2413372.285 6
 91  5  8 19 29  0.0000000  0  6  2 19 11  6 16 18
  22601306.646    -3314195.267 7  -2582478.405 4
  20913969.463      789844.358 8    615462.898 9
  23266215.730    -1445836.981 6  -1126617.391 5
  24158893.345    -2497112.982 5  -1945793.602 1
  23834009.152    -1534030.748 6  -1195348.513 3
  21436885.445     3177749.928 7   2476162.380 6
 91  5  8 19 29 30.0000000  0  6  2 19 11  6 16 18
  22589016.946    -3378769.519 7  -2632795.828 5
  20918399.794      813118.271 8    633598.405 9
  23262837.665    -1463597.981 7  -1140457.042 4
  24148865.892    -2549820.555 5  -1986864.226 3
  23830241.668    -1553810.490 6  -1210761.293 3
  21452305.278     3258782.323 7   2539304.375 6
 91  5  8 19 30  0.0000000  0  6  2 19 11  6 16 18
  22576792.615    -3443017.408 7  -2682858.963 5
  20922873.891      836628.264 8    651917.866 9
  23259571.734    -1480760.210 6  -1153830.063 3
  24138848.926    -2602414.875 5  -2027846.600 2
  23826587.802    -1573012.299 6  -1225723.741 2
  21467808.453     3340258.080 7   2602791.841 5
 91  5  8 19 30 30.0000000  0  6  2 19 11  6 16 18
  22564628.225    -3506939.360 7  -2732668.107 4
  20927393.864      860373.359 7    670420.526 9
  23256421.516    -1497323.318 6  -1166736.274 4
  24128861.328    -2654897.495 5  -2068741.977 2
  23823046.053    -1591636.576 6  -1240236.150 2
  21483400.048     3422174.982 7   2666623.040 6
 91  5  8 19 31  0.0000000  0  6  2 19 11  6 16 18
  22552528.017    -3570527.476 7  -2782217.124 6
  20931954.914      884360.487 8    689111.772 9
  23253382.526    -1513278.917 6  -1179169.102 4
  24118899.837    -2707262.256 5  -2109545.495 3
  23819608.029    -1609675.950 6  -1254292.777 3
  21499070.204     3504538.111 7   2730801.967 5
 91  5  8 19 31 30.0000000  0  6  2 19 11  6 16 18
  22540491.049    -3633781.055 7  -2831505.472 5
  20936566.309      908589.576 7    707991.562 8
  23250462.546    -1528625.382 6  -1191127.283 3
  24108955.725    -2759509.299 5  -2150257.299 3
  23816289.922    -1627130.377 6  -1267893.622 3
  21514827.297     3587346.547 7   2795327.884 6
 91  5  8 19 32  0.0000000  0  6  2 19 11  6 16 18
  22528514.633    -3696703.126 7  -2880535.504 6
  20941221.189      933057.011 8    727057.068 9
  23247656.481    -1543364.756 6  -1202612.432 4
  24099040.075    -2811643.027 5  -2190880.860 3
  23813079.745    -1644002.848 6  -1281041.033 3
  21530671.623     3670594.919 7   2860196.607 5
 91  5  8 19 32 30.0000000  0  6  2 19 11  6 16 18
  22516607.477    -3759293.602 7  -2929307.164 5
  20945922.243      957762.134 8    746307.798 9
  23244972.149    -1557496.188 7  -1213623.838 3
  24089138.839    -2863664.433 6  -2231416.851 3
  23809980.796    -1660292.613 6  -1293734.360 3
  21546594.807     3754281.687 7   2925406.929 6
 91  5  8 19 33  0.0000000  0  6  2 19 11  6 16 18
  22504756.982    -3821557.825 7  -2977824.588 6
  20950668.859      982698.807 8    765738.949 8
  23242397.230    -1571024.592 7  -1224165.381 4
  24079254.984    -2915580.307 5  -2271870.637 3
  23806992.760    -1676006.419 6  -1305978.850 3
  21562600.723     3838398.482 7   2990952.343 6
 91  5  8 19 33 30.0000000  0  6  2 19 11  6 16 18
  22492971.838    -3883488.506 7  -3026082.125 5
  20955458.333     1007874.087 8    785356.019 9
  23239936.522    -1583941.782 7  -1234230.648 3
  24069401.701    -2967384.406 6  -2312237.335 2
  23804108.466    -1691136.685 6  -1317768.656 1
  21578690.277     3922950.686 7   3056837.036 4
 91  5  8 19 34  0.0000000  0  6  2 19 11  6 16 18
  22481252.655    -3945086.810 7  -3074080.671 5
  20960294.888     1033285.902 7    805157.422 9
  23237593.656    -1596248.308 7  -1243820.079 4
  24059561.907    -3019079.523 6  -2352519.123 3
  23801333.881    -1705685.023 6  -1329105.043 3
  21594863.191     4007935.114 7   3123058.552 5
 91  5  8 19 34 30.0000000  0  6  2 19 11  6 16 18
  22469593.432    -4006344.843 7  -3121814.067 5
  20965180.914     1058941.629 7    825148.870 9
  23235371.284    -1607935.584 7  -1252926.963 3
  24049747.311    -3070658.648 5  -2392710.505 4
  23798686.108    -1719643.826 6  -1339982.028 2
  21611118.540     4093357.947 7   3189621.669 6
 91  5  8 19 35  0.0000000  0  6  2 19 11  6 16 18
  22458002.544    -4067262.838 7  -3169282.513 5
  20970102.294     1084839.919 8    845329.340 8
  23233264.641    -1619003.150 7  -1261550.972 5
  24039951.893    -3122123.344 5  -2432812.724 2
  23796135.182    -1733013.692 6  -1350400.137 4
  21627458.418     4179216.065 7   3256523.962 6
 91  5  8 19 35 30.0000000  0  6  2 19 11  6 16 18
  22446472.225    -4127841.339 7  -3216486.400 6
  20975084.244     1110979.850 7    865698.102 8
  23231273.117    -1629450.731 7  -1269691.887 3
  24030178.358    -3173475.215 5  -2472826.999 3
  23793711.365    -1745795.898 6  -1360360.295 3
  21643878.654     4265507.182 7   3323763.650 6
 91  5  8 19 36  0.0000000  0  6  2 19 11  6 16 18
  22435010.573    -4188081.377 7  -3263426.569 6
  20980101.880     1137360.301 7    886254.280 8
  23229406.921    -1639278.414 7  -1277349.756 3
  24020432.708    -3224716.186 5  -2512754.863 2
  23791389.159    -1757990.825 6  -1369862.822 2
  21660381.325     4352228.384 7   3391338.465 6
 91  5  8 19 36 30.0000000  0  6  2 19 11  6 16 18
  22423613.347    -4247981.405 7  -3310101.784 6
  20985168.969     1163982.001 7    906998.442 8
  23227653.436    -1648484.104 7  -1284522.924 4
  24010704.735    -3275845.937 5  -2552596.032 2
  23789176.088    -1769597.907 6  -1378907.329 4
  21676966.745     4439378.246 7   3459247.287 6
 91  5  8 19 37  0.0000000  0  6  2 19 11  6 16 18
  22412277.598    -4307545.073 7  -3356514.885 5
  20990276.840     1190840.814 8    927927.373 7
  23226021.666    -1657071.278 7  -1291214.165 3
  24000992.956    -3326869.593 5  -2592354.590 2
  23787078.153    -1780621.132 6  -1387496.873 3
  21693629.208     4526951.527 7   3527486.043 6
 91  5  8 19 37 30.0000000  0  6  2 19 11  6 16 18
  22401007.201    -4366777.148 7  -3402669.618 6
  20995430.570     1217931.333 8    949036.848 7
  23224503.515    -1665043.743 7  -1297426.427 2
  23991302.466    -3377792.736 5  -2632035.195 2
  23785089.927    -1791065.535 6  -1395635.381 2
  21710373.529     4614941.398 6   3596049.423 6
 91  5  8 19 38  0.0000000  0  6  2 19 11  6 16 18
  22389799.467    -4425670.104 7  -3448560.088 6
  21000638.256     1245260.296 7    970332.126 8
  23223098.982    -1672393.651 7  -1303153.546 3
  23981634.452    -3428609.317 6  -2671632.379 4
  23783220.119    -1800924.763 6  -1403317.917 2
  21727198.471     4703352.552 6   3664941.039 6
 91  5  8 19 38 30.0000000  0  6  2 19 11  6 16 18
  22378655.583    -4484220.487 7  -3494183.619 7
  21005878.940     1272831.176 8    991815.911 8
  23221823.074    -1679116.449 6  -1308392.033 2
  23971981.149    -3479316.544 6  -2711144.282 1
  23781451.051    -1810195.498 6  -1410541.885 3
  21744103.770     4792186.753 6   3734162.337 6
 91  5  8 19 39  0.0000000  0  6  2 19 11  6 16 18
  22367583.350    -4542419.389 7  -3539533.262 6
  21011173.860     1300651.956 8   1013494.422 8
  23220668.568    -1685203.121 6  -1313134.813 4
  23962357.214    -3529906.869 6  -2750565.118 2
  23779802.180    -1818868.593 6  -1417300.142 2
  21761087.614     4881450.512 7   3803718.367 5
 91  5  8 19 39 30.0000000  0  6  2 19 11  6 16 18
  22356571.966    -4600269.621 7  -3584611.218 6
  21016514.673     1328719.130 8   1035364.926 7
  23219627.086    -1690655.997 6  -1317383.711 4
  23952748.566    -3580384.593 5  -2789898.219 2
  23778264.257    -1826947.397 6  -1423595.358 3
  21778155.392     4971137.969 7   3873604.543 5
 91  5  8 19 40  0.0000000  0  6  2 19 11  6 16 18
  22345633.140    -4657769.290 8  -3629416.007 6
  21021901.939     1357034.664 8   1057428.971 7
  23218715.121    -1695472.205 6  -1321136.529 5
  23943167.192    -3630748.350 5  -2829142.485 2
  23776848.033    -1834431.017 6  -1429426.757 2
  21795305.030     5061250.266 7   3943821.762 4
 91  5  8 19 40 30.0000000  0  6  2 19 11  6 16 18
  22334757.571    -4714918.957 8  -3673948.048 6
  21027338.973     1385597.742 8   1079685.892 7
  23217917.977    -1699652.053 6  -1324393.481 3
  23933600.215    -3680999.877 5  -2868299.317 2
  23775524.748    -1841320.519 6  -1434795.233 3
  21812533.805     5151784.687 7   4014367.920 5
 91  5  8 19 41  0.0000000  0  6  2 19 11  6 16 18
  22323946.149    -4771720.883 8  -3718209.143 6
  21032818.290     1414404.855 8   1102132.975 7
  23217244.643    -1703197.834 7  -1327156.338 2
  23924058.715    -3731142.921 5  -2907371.586 2
  23774335.463    -1847618.737 6  -1439702.948 3
  21829842.012     5242734.938 6   4085238.081 5
 91  5  8 19 41 30.0000000  0  6  2 19 11  6 16 18
  22313203.394    -4828173.137 8  -3762197.749 6
  21038348.857     1443457.991 8   1124771.766 7
  23216689.115    -1706106.048 7  -1329422.421 3
  23914537.911    -3781175.691 5  -2946357.929 2
  23773245.418    -1853323.709 6  -1444148.391 4
  21847226.076     5334102.715 6   4156433.583 6
 91  5  8 19 42  0.0000000  0  6  2 19 11  6 16 18
  22302527.473    -4884270.334 7  -3805909.695 7
  21043926.487     1472762.198 8   1147606.197 7
  23216260.416    -1708371.178 7  -1331187.374 3
  23905035.395    -3831094.333 5  -2985255.360 3
  23772269.601    -1858430.238 6  -1448127.542 3
  21864696.187     5425890.533 6   4227956.375 6
 91  5  8 19 42 30.0000000  0  6  2 19 11  6 16 18
  22291921.719    -4940014.082 7  -3849346.214 6
  21049550.291     1502315.319 8   1170634.584 8
  23215950.134    -1709994.712 7  -1332452.376 3
  23895565.249    -3880901.662 6  -3024066.036 2
  23771414.593    -1862941.333 6  -1451642.681 2
  21882242.137     5518094.094 6   4299803.124 4
 91  5  8 19 43  0.0000000  0  6  2 19 11  6 16 18
  22281379.816    -4995405.750 7  -3892508.397 6
  21055222.066     1532115.658 7   1193855.609 8
  23215761.863    -1710977.457 7  -1333218.106 4
  23886105.591    -3930599.685 5  -3062791.523 1
  23770670.813    -1866858.815 6  -1454695.285 2
  21899865.444     5610710.726 6   4371971.752 6
 91  5  8 19 43 30.0000000  0  6  2 19 11  6 16 18
  22270908.080    -5050447.764 7  -3935398.109 7
  21060937.623     1562160.488 8   1217267.156 7
  23215695.901    -1711321.483 7  -1333486.126 4
  23876668.723    -3980191.878 6  -3101434.590 2
  23770039.743    -1870185.496 6  -1457287.516 3
  21917565.793     5703734.908 6   4444457.954 6
 91  5  8 19 44  0.0000000  0  6  2 19 11  6 16 18
  22260497.175    -5105143.692 7  -3978018.152 6
  21066696.631     1592446.194 8   1240866.390 7
  23215749.264    -1711029.816 7  -1333258.769 4
  23867248.955    -4029682.710 6  -3139998.680 2
  23769517.214    -1872925.355 6  -1459422.484 2
  21935347.669     5797162.046 6   4517258.134 5
 91  5  8 19 44 30.0000000  0  6  2 19 11  6 16 18
  22250155.234    -5159481.020 7  -4020358.771 6
  21072510.502     1622985.309 8   1264663.091 7
  23215929.752    -1710089.308 7  -1332525.864 4
  23857854.351    -4079060.603 6  -3178474.767 3
  23769107.692    -1875066.853 5  -1461091.220 1
  21953204.809     5891001.687 6   4590379.730 6
 91  5  8 19 45  0.0000000  0  6  2 19 11  6 16 18
  22239887.054    -5213456.050 7  -4062417.078 6
  21078371.141     1653780.184 8   1288659.073 7
  23216234.939    -1708496.383 7  -1331284.559 4
  23848477.442    -4128323.026 6  -3216860.899 3
  23768814.197    -1876606.354 6  -1462290.852 2
  21971141.399     5985255.335 6   4663823.940 6
 91  5  8 19 45 30.0000000  0  6  2 19 11  6 16 18
  22229685.413    -5267063.189 7  -4104188.722 7
  21084280.657     1684836.245 8   1312858.582 7
  23216660.637    -1706245.107 7  -1329530.251 4
  23839128.418    -4177465.197 6  -3255153.303 3
  23768630.725    -1877539.266 6  -1463017.810 2
  21989153.531     6079925.901 6   4737593.012 6
 91  5  8 19 46  0.0000000  0  6  2 19 11  6 16 18
  22219551.216    -5320307.507 7  -4145677.631 6
  21090236.626     1716148.319 8   1337257.579 7
  23217217.351    -1703339.872 7  -1327266.372 4
  23829800.369    -4226492.928 6  -3293356.552 3
  23768575.251    -1877871.149 6  -1463276.453 2
  22007248.098     6175006.850 6   4811681.860 5
 91  5  8 19 46 30.0000000  0  6  2 19 11  6 16 18
  22209489.595    -5373187.479 8  -4186882.651 7
  21096246.864     1747717.424 8   1361856.870 7
  23217890.685    -1699778.954 7  -1324491.579 3
  23820494.814    -4275405.679 6  -3331470.178 4
  23768623.221    -1877601.118 6  -1463066.051 2
  22025417.928     6270497.189 6   4886089.716 6
 91  5  8 19 47  0.0000000  0  6  2 19 11  6 16 18
  22199497.199    -5425696.392 8  -4227798.537 7
  21102310.466     1779549.962 7   1386661.437 7
  23218692.331    -1695555.547 7  -1321200.560 3
  23811205.452    -4324197.665 6  -3369489.743 4
  23768792.000    -1876723.292 6  -1462382.046 3
  22043674.974     6366401.896 6   4960820.440 6
 91  5  8 19 47 30.0000000  0  6  2 19 11  6 16 18
  22189574.971    -5477840.051 8  -4268429.810 7
  21108411.254     1811639.885 8   1411666.556 7
  23219627.383    -1690675.233 7  -1317397.676 4
  23801940.067    -4372875.925 6  -3407420.653 2
  23769076.805    -1875244.445 6  -1461229.696 2
  22061999.203     6462711.814 6   5035866.921 5
 91  5  8 19 48  0.0000000  0  6  2 19 11  6 16 18
  22179723.206    -5529617.164 8  -4308775.459 7
  21114571.687     1843988.350 7   1436873.138 7
  23220679.352    -1685136.544 7  -1313081.753 3
  23792699.863    -4421439.741 6  -3445262.425 4
  23769464.444    -1873163.454 6  -1459608.208 3
  22080401.959     6559426.633 6   5111228.908 6
 91  5  8 19 48 30.0000000  0  6  2 19 11  6 16 18
  22169937.665    -5581033.229 8  -4348839.783 8
  21120773.198     1876589.803 7   1462276.848 7
  23221859.650    -1678944.563 7  -1308256.759 2
  23783482.134    -4469895.492 6  -3483019.933 4
  23769980.081    -1870486.787 6  -1457522.526 2
  22098879.663     6656538.988 6   5186900.656 5
 91  5  8 19 49  0.0000000  0  6  2 19 11  6 16 18
  22160220.197    -5632094.498 8  -4388627.643 7
  21127024.773     1909437.103 7   1487872.142 7
  23223157.440    -1672105.810 7  -1302927.848 4
  23774275.504    -4518250.507 6  -3520699.010 3
  23770603.350    -1867221.445 6  -1454978.130 1
  22117433.223     6754039.791 6   5262875.086 5
 91  5  8 19 49 30.0000000  0  6  2 19 11  6 16 18
  22150573.175    -5682793.465 8  -4428133.195 7
  21133318.910     1942538.738 7   1513665.597 7
  23224584.763    -1664611.827 7  -1297088.359 3
  23765100.371    -4566497.523 6  -3558293.909 3
  23771336.940    -1863360.534 6  -1451969.637 2
  22136063.529     6851934.748 6   5339156.653 5
 91  5  8 19 50  0.0000000  0  6  2 19 11  6 16 18
  22140992.709    -5733139.257 8  -4467363.550 7
  21139664.612     1975884.522 8   1539649.310 6
  23226132.283    -1656471.685 7  -1290745.313 2
  23755932.708    -4614646.819 6  -3595812.652 3
  23772184.759    -1858914.428 6  -1448505.152 2
  22154767.266     6950212.226 6   5415736.292 5
 91  5  8 19 50 30.0000000  0  6  2 19 11  6 16 18
  22131479.392    -5783129.372 8  -4506316.739 6
  21146061.582     2009476.841 7   1565825.127 7
  23227805.428    -1647682.976 7  -1283896.916 2
  23746793.540    -4662696.576 6  -3633253.848 3
  23773143.491    -1853879.984 6  -1444582.200 3
  22173539.372     7048872.670 6   5492614.344 5
 91  5  8 19 51  0.0000000  0  6  2 19 11  6 16 18
  22122033.240    -5832761.881 8  -4544991.301 6
  21152499.631     2043317.723 7   1592194.633 7
  23229603.289    -1638243.501 7  -1276541.442 2
  23737665.750    -4710645.469 6  -3670616.439 4
  23774208.356    -1848257.128 6  -1440200.792 2
  22192387.632     7147916.426 6   5569791.089 6
 91  5  8 19 51 30.0000000  0  6  2 19 11  6 16 18
  22112656.924    -5882043.729 8  -4583392.610 7
  21158983.242     2077399.985 8   1618752.232 7
  23231522.254    -1628159.836 7  -1268683.925 3
  23728561.064    -4758501.359 6  -3707906.530 4
  23775391.044    -1842053.848 6  -1435367.078 2
  22211304.540     7247333.643 6   5647258.838 6
 91  5  8 19 52  0.0000000  0  6  2 19 11  6 16 18
  22103346.273    -5930969.436 8  -4621516.387 7
  21165515.713     2111728.732 7   1645501.878 7
  23233562.342    -1617426.921 7  -1260320.595 3
  23719465.347    -4806259.979 6  -3745120.838 3
  23776679.551    -1835264.852 6  -1430077.031 2
  22230297.287     7347127.552 6   5725020.111 4
 91  5  8 19 52 30.0000000  0  6  2 19 11  6 16 18
  22094102.177    -5979546.632 8  -4659368.606 6
  21172097.063     2146296.674 7   1672437.935 8
  23235724.738    -1606051.861 7  -1251456.818 2
  23710404.723    -4853929.266 6  -3782265.546 3
  23778083.770    -1827898.944 6  -1424337.300 2
  22249355.996     7447288.190 6   5803067.155 5
 91  5  8 19 53  0.0000000  0  6  2 19 11  6 16 18
  22084923.118    -6027777.968 8  -4696951.332 6
  21178717.082     2181100.850 8   1699558.054 8
  23238013.962    -1594037.159 7  -1242094.640 3
  23701344.692    -4901512.308 6  -3819343.057 4
  23779598.623    -1819959.391 6  -1418150.711 3
  22268488.450     7547811.303 6   5881396.634 4
 91  5  8 19 53 30.0000000  0  6  2 19 11  6 16 18
  22075812.132    -6075656.135 8  -4734258.853 6
  21185385.369     2216148.162 8   1726867.643 8
  23240420.085    -1581375.779 7  -1232228.562 4
  23692306.858    -4949002.947 6  -3856348.551 4
  23781213.903    -1811439.995 5  -1411512.216 2
  22287686.848     7648701.508 6   5960012.180 5
 91  5  8 19 54  0.0000000  0  6  2 19 11  6 16 18
  22066765.294    -6123197.137 8  -4771303.660 7
  21192101.312     2251422.243 8   1754353.925 8
  23242953.333    -1568083.681 7  -1221871.001 2
  23683292.704    -4996418.090 6  -3893295.190 7
  23782942.818    -1802358.258 6  -1404435.578 3
  22306951.225     7749940.328 6   6038899.366 4
 91  5  8 19 54 30.0000000  0  6  2 19 11  6 16 18
  22057785.011    -6170392.948 8  -4808079.467 7
  21198855.035     2286931.441 8   1782023.421 8
  23245605.609    -1554152.991 7  -1211015.856 5
  23674277.642    -5043750.101 6  -3930177.137 4
  23784781.443    -1792706.091 6  -1396914.486 3
  22326282.733     7851533.818 6   6118062.914 5
 91  5  8 19 55  0.0000000  0  6  2 19 11  6 16 18
  22048868.892    -6217249.804 8  -4844591.165 7
  21205658.526     2322669.897 8   1809871.549 8
  23248376.285    -1539589.719 7  -1199667.768 3
  23665281.758    -5091005.512 6  -3966999.358 3
  23786725.885    -1782491.061 6  -1388954.721 3
  22345683.798     7953474.002 6   6197496.627 5
 91  5  8 19 55 30.0000000  0  6  2 19 11  6 16 18
  22040015.716    -6263765.406 8  -4880836.942 6
  21212504.595     2358639.174 7   1837899.550 8
  23251267.176    -1524391.570 7  -1187824.970 4
  23656306.588    -5138183.170 6  -4003760.987 4
  23788774.681    -1771711.500 6  -1380555.096 5
  22365145.136     8055760.189 6   6277199.941 4
 91  5  8 19 56  0.0000000  0  6  2 19 11  6 16 18
  22031231.189    -6309937.562 8  -4916815.109 7
  21219391.725     2394841.787 8   1866109.362 8
  23254276.500    -1508556.240 7  -1175485.697 4
  23647340.683    -5185280.994 6  -4040460.414 4
  23790936.483    -1760366.050 6  -1371714.549 2
  22384676.606     8158392.832 6   6357173.690 4
 91  5  8 19 56 30.0000000  0  6  2 19 11  6 16 18
  22022510.530    -6355764.360 9  -4952524.165 6
  21226323.527     2431279.696 7   1894502.534 8
  23257411.729    -1492082.466 7  -1162648.918 5
  23638394.585    -5232298.317 6  -4077097.117 4
  23793202.010    -1748453.736 6  -1362432.305 4
  22404273.742     8261371.626 5   6437417.177 4
 91  5  8 19 57  0.0000000  0  6  2 19 11  6 16 18
  22013857.630    -6401240.977 9  -4987960.354 6
  21233304.487     2467957.639 7   1923082.743 8
  23260673.471    -1474964.919 7  -1149310.512 5
  23629466.460    -5279230.461 6  -4113667.442 3
  23795576.357    -1735971.002 6  -1352705.519 4
  22423935.024     8364699.363 5   6517932.089 4
 91  5  8 19 57 30.0000000  0  6  2 19 11  6 16 18
  22005268.877    -6446370.197 9  -5023125.834 7
  21240327.432     2504872.431 7   1951847.503 8
  23264053.334    -1457206.507 7  -1135472.715 5
  23620547.933    -5326080.959 6  -4150174.133 4
  23798059.243    -1722921.376 6  -1342537.053 5
  22443667.678     8468370.557 5   6598714.594 3
 91  5  8 19 58  0.0000000  0  6  2 19 11  6 16 18
  21996747.272    -6491152.535 8  -5058021.026 7
  21247396.829     2542023.744 7   1980796.570 8
  23267553.115    -1438808.137 7  -1121136.240 5
  23611643.506    -5372851.112 6  -4186618.246 2
  23800646.448    -1709306.692 6  -1331928.262 3
  22463456.976     8572383.111 5   6679763.611 4
 91  5  8 19 58 30.0010000  0  6  2 19 11  6 16 18
  21988291.022    -6535587.515 8  -5092645.563 6
  21254514.514     2579415.278 8   2009932.825 8
  23271174.300    -1419766.943 7  -1106298.873 5
  23602760.947    -5419540.476 6  -4222999.367 4
  23803346.383    -1695125.339 6  -1320877.928 2
  22483325.413     8676739.868 5   6761080.338 4
 91  5  8 19 59  0.0010000  0  6  2 19 11  6 16 18
  21979901.638    -6579670.788 9  -5126996.031 6
  21261677.741     2617045.421 8   2039255.003 7
  23274920.216    -1400083.262 6  -1090960.863 4
  23593894.892    -5466145.899 6  -4259315.100 3
  23806157.247    -1680377.969 6  -1309386.525 4
  22503242.428     8781432.768 5   6842659.015 4
 91  5  8 19 59 30.0010000  0  6  2 19 11  6 16 18
  21971578.792    -6623404.641 9  -5161074.226 6
  21268886.548     2654914.855 7   2068763.656 7
  23278788.127    -1379757.446 7  -1075122.487 4
  23585039.326    -5512669.892 6  -4295567.397 3
  23809073.021    -1665065.487 6  -1297454.760 2
  22523226.295     8886462.269 4   6924499.970 3
 91  5  8 20  0  0.0010000  0  6  2 19 11  6 16 18
  21963322.204    -6666791.748 9  -5194882.230 6
  21276134.043     2693020.726 8   2098456.540 8
  23282782.272    -1358791.989 7  -1058785.708 4
  23576206.235    -5559115.729 6  -4331758.782 3
  23812090.129    -1649192.166 6  -1285086.002 4
  22543270.715     8991823.605 4   7006599.511 2
 91  5  8 20  0 30.0010000  0  6  2 19 11  6 16 18
  21955134.282    -6709827.542 9  -5228416.468 7
  21283434.882     2731367.924 7   2128337.461 7
  23286893.613    -1337182.715 7  -1041947.243 2
  23567379.740    -5605479.189 6  -4367885.959 4
  23815215.166    -1632754.447 6  -1272277.465 4
  22563393.381     9097519.384 3   7088959.612 2
 91  5  8 20  1  0.0010000  0  6  2 19 11  6 16 18
  21947012.899    -6752503.369 9  -5261670.237 8
  21290779.208     2769965.249 7   2158413.290 7
  23291128.781    -1314921.209 7  -1024600.566 3
  23558579.630    -5651752.058 6  -4403942.554 3
  23818462.216    -1615744.417 6  -1259022.962 3
  22583564.925     9203555.967 3   7171585.750 2
 91  5  8 20  1 30.0010000  0  5  2 19 11  6 16
  21938960.775    -6794819.378 9  -5294643.618 7
  21298170.876     2808812.312 7   2188683.714 6
  23295483.273    -1292007.975 7  -1006746.061 4
  23549784.023    -5697935.283 6  -4439929.267 3
  23821798.907    -1598163.359 6  -1245323.497 3
 91  5  8 20  2  0.0010000  0  5  2 19 11  6 16
  21930975.800    -6836775.936 9  -5327336.916 8
  21305608.141     2847909.040 8   2219148.686 6
  23299971.469    -1268443.522 7   -988384.106 3
  23541015.986    -5744029.312 6  -4475846.515 3
  23825258.220    -1580012.569 6  -1231180.102 3
 91  5  8 20  2 30.0010000  0  5  2 19 11  6 16
  21923060.678    -6878368.208 9  -5359746.360 7
  21313096.047     2887260.668 8   2249812.288 6
  23304578.676    -1244223.466 7   -969511.318 3
  23532263.254    -5790029.818 6  -4511690.867 2
  23828815.255    -1561288.664 6  -1216590.112 4
 91  5  8 20  3  0.0010000  0  5  2 19 11  6 16
  21915212.407    -6919596.817 8  -5391872.431 7
  21320637.036     2926866.120 7   2280673.667 7
  23309313.304    -1219348.953 7   -950128.575 3
  23523524.010    -5835938.078 6  -4547463.325 3
  23832494.913    -1541993.817 6  -1201555.178 2
 91  5  8 20  3 30.0010000  0  6  2 19 11  6 16 18
  21907435.805    -6960466.706 8  -5423718.983 7
  21328215.177     2966720.509 7   2311729.022 7
  23314172.631    -1193825.189 7   -930239.891 3
  23514801.833    -5881759.643 6  -4583168.248 2
  23836268.697    -1522133.817 6  -1186079.905 3
  22685422.405       61077.91515     47576.959 2
 91  5  8 20  4  0.0010000  0  6  2 19 11  6 16 18
  21899728.742    -7000978.045 8  -5455286.141 6
  21335847.292     3006824.179 7   2342978.629 6
  23319149.782    -1167652.281 7   -909845.402 4
  23506105.465    -5927494.674 6  -4618805.681 3
  23840154.005    -1501709.444 6  -1170164.875 4
  22705984.276      169117.582 5    131763.951 3
 91  5  8 20  4 30.0010000  0  6  2 19 11  6 16 18
  21892086.122    -7041134.762 8  -5486576.968 7
  21343525.580     3047173.368 7   2374419.524 7
  23324254.948    -1140834.630 7   -888948.525 4
  23497414.785    -5973147.442 6  -4654379.052 2
  23844149.041    -1480726.168 6  -1153814.330 3
  22726600.102      277477.285 5    216200.298 1
 91  5  8 20  5  0.0010000  0  6  2 19 11  6 16 18
  21884512.763    -7080935.195 8  -5517590.180 7
  21351252.135     3087769.688 7   2406053.004 6
  23329483.033    -1113371.379 7   -867548.580 3
  23488746.581    -6018716.955 6  -4689887.552 4
  23848246.300    -1459183.577 6  -1137027.955 2
  22747276.796      386156.190 5    300885.410 2
 91  5  8 20  5 30.0010000  0  6  2 19 11  6 16 18
  21877005.068    -7120379.444 8  -5548325.840 7
  21359020.954     3128613.502 7   2437879.331 6
  23334830.426    -1085262.944 7   -845645.862 3
  23480088.865    -6064203.433 6  -4725331.367 4
  23852458.381    -1437082.942 6  -1119806.756 2
  22768017.322      495152.351 5    385817.284 2
 91  5  8 20  6  0.0010000  0  6  2 19 11  6 16 18
  21869567.210    -7159463.903 9  -5578781.144 8
  21366843.136     3169708.368 7   2469901.293 6
  23340302.238    -1056505.997 7   -823237.846 4
  23471449.454    -6109603.710 6  -4760708.009 3
  23856772.092    -1414421.880 6  -1102148.863 1
  22788824.124      604467.023 5    470997.423 1
 91  5  8 20  6 30.0010000  0  6  2 19 11  6 16 18
  21862199.222    -7198182.519 9  -5608951.387 8
  21374712.103     3211060.913 7   2502124.032 7
  23345898.174    -1027094.845 7   -800320.054 4
  23462829.221    -6154911.999 6  -4796012.984 3
  23861185.654    -1391195.173 6  -1084050.197 2
  22809684.882      714104.389 5    556429.065 2
 91  5  8 20  7  0.0010000  0  6  2 19 11  6 16 18
  21854902.273    -7236540.655 9  -5638840.726 8
  21382629.912     3252665.905 7   2534543.472 6
  23351617.308     -997034.826 6   -776896.662 5
  23454219.179    -6200133.681 6  -4831250.457 3
  23865714.317    -1367409.563 6  -1065516.028 3
  22830609.194      824056.952 5    642106.201 2
 91  5  8 20  7 30.0010000  0  6  2 19 11  6 16 18
  21847670.676    -7274530.086 9  -5668442.760 7
  21390598.100     3294531.024 7   2567165.617 7
  23357462.363     -966318.613 6   -752961.932 4
  23445632.834    -6245261.474 6  -4866414.802 3
  23870346.407    -1343058.773 6  -1046541.476 3
  22851593.464      934330.319 5    728033.740 1
 91  5  8 20  8  0.0010000  0  6  2 19 11  6 16 18
  21840512.824    -7312149.851 9  -5697756.769 8
  21398618.447     3336658.217 7   2599991.968 7
  23363433.025     -934945.609 6   -728515.421 3
  23437062.055    -6290294.091 6  -4901504.950 4
  23875086.724    -1318142.146 6  -1027125.982 2
  22872643.994     1044923.820 5    814210.658 1
 91  5  8 20  8 30.0010000  0  6  2 19 11  6 16 18
  21833426.325    -7349401.201 9  -5726783.682 8
  21406680.762     3379046.688 7   2633021.912 6
  23369526.310     -902917.414 6   -703558.367 3
  23428512.583    -6335232.944 6  -4936522.081 4
  23879933.470    -1292662.962 6  -1007272.155 2
  22893744.587     1155833.298 5    900633.827 1
 91  5  8 20  9  0.0010000  0  6  2 19 11  6 16 18
  21826408.197    -7386277.619 9  -5755518.444 8
  21414795.253     3421703.100 7   2666260.632 6
  23375747.016     -870228.376 7   -678086.361 4
  23419977.489    -6380072.091 6  -4971461.522 3
  23884896.538    -1266615.650 6   -986975.612 3
  22914909.939     1267063.228 5    987306.733 3
 91  5  8 20  9 30.0010000  0  6  2 19 11  6 16 18
  21819463.795    -7422774.447 9  -5783957.424 7
  21422965.794     3464631.845 7   2699711.564 7
  23382096.312     -836874.595 7   -652096.383 4
  23411465.186    -6424807.154 6  -5006319.863 3
  23889959.126    -1239996.573 6   -966233.576 1
  22936144.237     1378616.836 5   1074231.844 1
 91  5  8 20 10  0.0010000  0  6  2 19 11  6 16 18
  21812589.561    -7458890.681 9  -5812099.831 8
  21431187.900     3507834.062 7   2733375.591 7
  23388571.233     -802855.634 7   -625588.094 5
  23402973.264    -6469437.484 6  -5041096.593 2
  23895136.535    -1212806.345 6   -945046.488 2
  22957432.804     1490492.345 5   1161407.659 1
 91  5  8 20 10 30.0010000  0  6  2 19 11  6 16 18
  21805788.775    -7494631.587 9  -5839949.782 8
  21439458.274     3551304.926 7   2767248.946 8
  23395168.759     -768177.336 7   -598566.016 2
  23394499.334    -6513968.452 6  -5075795.925 2
  23900416.779    -1185051.456 6   -923419.394 2
  22978782.221     1602681.955 5   1248827.907 1
 91  5  8 20 11  0.0010000  0  6  2 19 11  6 16 18
  21799056.935    -7529997.005 9  -5867507.149 8
  21447781.713     3595044.982 7   2801332.058 8
  23401894.300     -732840.242 7   -571030.572 4
  23386041.876    -6558400.238 6  -5110417.976 4
  23905802.859    -1156733.188 6   -901353.324 5
  23000185.907     1715183.770 5   1336491.821 1
 91  5  8 20 11 30.0010000  0  6  2 19 11  6 16 18
  21792400.637    -7564981.516 9  -5894767.699 8
  21456158.219     3639060.087 7   2835629.505 7
  23408743.057     -696839.168 7   -542977.790 3
  23377604.522    -6602727.328 6  -5144958.427 4
  23911304.040    -1127848.123 6   -878845.581 5
  23021656.743     1828001.581 5   1424402.027 2
 91  5  8 20 12  0.0010000  0  6  2 19 11  6 16 18
  21785814.191    -7599585.496 9  -5921731.743 9
  21464591.369     3683350.119 7   2870141.167 7
  23415720.142     -660175.225 7   -514408.449 4
  23369193.237    -6646950.253 6  -5179417.683 3
  23916905.979    -1098397.506 6   -855897.130 3
  23043183.942     1941132.622 5   1512556.288
 91  5  8 20 12 30.0010000  0  6  2 19 11  6 16 18
  21779298.804    -7633830.414 9  -5948415.986 8
  21473063.205     3727894.236 7   2904850.818 8
  23422823.725     -622869.899 7   -485339.349 2
  23360793.959    -6691090.168 6  -5213812.278 4
  23922618.220    -1068403.398 6   -832525.176 2
  23064770.786     2054554.146 5   1600936.826 3
 91  5  8 20 13  0.0010000  0  6  2 19 11  6 16 18
  21772853.862    -7667693.275 9  -5974802.533 9
  21481599.503     3772715.857 7   2939776.720 7
  23430043.316     -584901.331 7   -455753.432 4
  23352414.155    -6735124.396 6  -5248124.501 3
  23928428.794    -1037844.851 6   -808713.380 3
  23086417.310     2168286.202 5   1689559.375 2
 91  5  8 20 13 30.0010000  0  6  2 19 11  6 16 18
  21766483.277    -7701175.438 9  -6000892.422 8
  21490178.954     3817813.824 7   2974917.942 8
  23437398.722     -546271.676 7   -425652.385 3
  23344054.750    -6779054.519 6  -5282355.606 4
  23934352.096    -1006725.016 6   -784464.304 4
  23108113.881     2282325.009 5   1778420.914 3
 91  5  8 20 14  0.0010000  0  6  2 19 11  6 16 18
  21760187.639    -7734263.270 9  -6026675.037 8
  21498817.772     3863201.927 7   3010285.256 8
  23444877.955     -506967.994 7   -395026.120 4
  23335713.913    -6822867.073 6  -5316495.093 2
  23940382.716     -975031.390 6   -759768.062 2
  23129875.821     2396682.705 5   1867531.001 3
 91  5  8 20 14 30.0010000  0  6  2 19 11  6 16 18
  21753967.544    -7766950.630 9  -6052145.602 8
  21507506.968     3908886.155 7   3045883.317 8
  23452482.481     -466984.835 7   -363870.399 3
  23327402.182    -6866556.070 6  -5350538.326 2
  23946521.860     -942759.010 6   -734620.852 2
  23151691.717     2511362.762 5   1956892.221 2
 91  5  8 20 15  0.0010000  0  6  2 19 11  6 16 18
  21747823.288    -7799244.184 9  -6077309.313 9
  21516251.307     3954861.108 7   3081707.905 9
  23460220.728     -426329.405 6   -332190.830 4
  23319109.315    -6910128.049 6  -5384490.341 5
  23952773.435     -909915.947 6   -709028.937 2
  23173582.858     2626356.435 5   2046497.837 4
 91  5  8 20 15 30.0010000  0  6  2 19 11  6 16 18
  21741748.308    -7831154.363 9  -6102174.281 8
  21525058.607     4001116.051 7   3117750.685 8
  23468080.690     -385013.200 6   -299996.338 3
  23310836.847    -6953593.699 6  -5418359.513 4
  23959125.751     -876514.457 6   -683001.934 2
  23195520.172     2741651.141 5   2136338.010 4
 91  5  8 20 16  0.0010000  0  6  2 19 11  6 16 18
  21735747.353    -7862694.815 9  -6126751.160 9
  21533910.282     4047637.911 7   3154001.433 8
  23476068.649     -343050.436 6   -267298.023 2
  23302585.058    -6996966.606 6  -5452156.435 3
  23965589.870     -842569.701 5   -656551.554 3
  23217510.256     2857230.911 5   2226400.306 4
 91  5  8 20 16 30.0010000  0  6  2 19 11  6 16 18
  21729817.455    -7893870.470 9  -6151043.787 8
  21542811.725     4094422.562 7   3190456.973 8
  23484173.839     -300446.649 6   -234100.235 5
  23294345.868    -7040251.342 6  -5485884.637 5
  23972152.618     -808087.957 5   -629682.788 3
  23239560.892     2973088.950 5   2316679.447 3
 91  5  8 20 17  0.0010000  0  6  2 19 11  6 16 18
  21723951.425    -7924680.180 9  -6175051.256 9
  21551765.031     4141471.545 7   3227118.482 8
  23492403.449     -257201.948 7   -200403.021 4
  23286132.749    -7083446.996 6  -5519543.433 3
  23978809.509     -773069.058 5   -602395.439 1
  23261662.186     3089224.389 5   2407174.717 1
 91  5  8 20 17 30.0010000  0  6  2 19 11  6 16 18
  21718158.825    -7955126.935 9  -6198775.910 9
  21560766.289     4188781.735 7   3263983.519 8
  23500752.959     -213320.447 7   -166209.607 4
  23277923.835    -7126556.907 6  -5553135.432 4
  23985582.131     -737518.402 6   -574693.764 2
  23283815.342     3205631.684 5   2497881.864 3
 91  5  8 20 18  0.0010000  0  6  2 19 11  6 16 18
  21712430.704    -7985206.830 9  -6222214.699 8
  21569820.021     4236357.596 7   3301055.560 8
  23509228.408     -168799.071 7   -131517.609 5
  23269738.897    -7169576.870 6  -5586657.326 3
  23992448.879     -701433.625 6   -546575.816 3
  23306023.379     3322312.919 5   2588802.448 3
 91  5  8 20 18 30.0010000  0  6  2 19 11  6 16 18
  21706778.718    -8014924.410 9  -6245371.166 9
  21578923.520     4284195.220 7   3338331.583 8
  23517820.755     -123642.875 7    -96330.921 3
  23261564.448    -7212511.336 6  -5620112.608 4
  23999410.661     -664820.007 6   -518045.861 2
  23328278.462     3439261.554 5   2679931.386 3
 91  5  8 20 19  0.0010000  0  6  2 19 11  6 16 18
  21701192.379    -8044280.438 9  -6268245.905 9
  21588077.084     4332294.943 7   3375811.833 8
  23526531.520      -77852.933 7    -60650.417 3
  23253414.288    -7255360.434 6  -5653501.363 2
  24006480.355     -627679.644 6   -489105.455 2
  23350588.129     3556475.159 5   2771266.795 4
 91  5  8 20 19 30.0010000  0  6  2 19 11  6 16 18
  21695673.800    -8073277.043 9  -6290840.579 8
  21597278.915     4380654.215 7   3413494.336 7
  23535367.002      -31432.865 7    -24478.972 4
  23245274.931    -7298126.707 6  -5686825.586 5
  24013646.897     -590017.048 6   -459758.104 2
  23372930.760     3673948.547 5   2862804.604 3
 91  5  8 20 20  0.0010000  0  6  2 19 11  6 16 18
  21690222.667    -8101922.309 9  -6313161.480 9
  21606528.717     4429265.157 7   3451372.933 7
  23544319.714       15608.240 7     12176.449 5
  23237150.249    -7340818.478 6  -5720091.752 4
  24020916.571     -551842.065 6   -430011.514 2
  23395330.645     3791671.814 4   2954537.129 3
 91  5  8 20 20 30.0010000  0  6  2 19 11  6 16 18
  21684839.292    -8130210.960 9  -6335204.498 9
  21615831.271     4478134.301 7   3489452.723 8
  23553390.232       63274.929 7     49319.333 2
  23229043.576    -7383429.743 6  -5753295.190 5
  24028278.870     -513150.351 6   -399862.280 3
  23417783.613     3909648.833 4   3046467.352 4
 91  5  8 20 21  0.0010000  0  6  2 19 11  6 16 18
  21679522.472    -8158149.031 9  -6356974.340 9
  21625178.498     4527255.913 7   3527729.244 7
  23562577.074      111560.826 7     86944.685 4
  23220947.966    -7425966.205 6  -5786440.334 4
  24035736.203     -473949.302 6   -369316.168 4
  23440274.640     4027871.342 3   3138588.904 3
 91  5  8 20 21 30.0010000  0  6  2 19 11  6 16 18
  21674271.318    -8185740.556 9  -6378474.134 8
  21634573.399     4576626.188 7   3566199.523 6
  23571882.019      160460.252 7    125048.104 5
  23212867.975    -7468432.092 6  -5819530.493 4
  24043289.181     -434244.488 5   -338377.562 4
  23462824.422     4146332.775 3   3230896.601 2
 91  5  8 20 22  0.0010000  0  6  2 19 11  6 16 18
  21669088.498    -8212984.400 9  -6399703.019 9
  21644013.268     4626246.376 7   3604864.538 6
  23581306.305      209972.942 7    163629.427 3
  23204799.046    -7510826.497 6  -5852564.947 5
  24050938.379     -394036.831 5   -307047.061 2
  23485414.689     4265031.959 3   3323389.586 2
 91  5  8 20 22 30.0010000  0  6  2 19 11  6 16 18
  21663969.547    -8239875.579 9  -6420657.098 8
  21653506.187     4676122.834 7   3643729.254 6
  23590844.193      260103.454 7    202692.171 3
  23196745.422    -7553143.994 6  -5885539.484 4
  24058690.708     -353323.409 5   -275322.480 2
  23508041.514     4383971.694 3   3416069.969 2
 91  5  8 20 23  0.0010000  0  5  2 19 11  6 16
  21658921.042    -8266412.169 9  -6441334.868 9
  21663044.982     4726257.744 7   3682795.353 5
  23600501.109      310852.541 7    242236.893 5
  23188708.288    -7595382.374 6  -5918452.350 4
  24066534.476     -312103.584 5   -243203.269 2
 91  5  8 20 23 30.0010000  0  5  2 19 11  6 16
  21653937.888    -8292598.220 9  -6461739.494 9
  21672632.655     4776647.378 7   3722059.943 5
  23610270.753      362215.038 7    282259.600 4
  23180684.939    -7637545.309 6  -5951306.438 5
  24074472.982     -270382.896 5   -210693.757 2
 91  5  8 20 24  0.0010000  0  5  2 19 11  6 16
  21649021.289    -8318432.311 9  -6481869.870 9
  21682273.080     4827294.079 7   3761524.838 6
  23620165.393      414191.697 7    322760.856 3
  23172678.396    -7679630.962 6  -5984100.303 5
  24082508.318     -228161.510 5   -177794.128 2
 91  5  8 20 24 30.0010000  0  5  2 19 11  6 16
  21644171.559    -8343920.076 9  -6501730.373 9
  21691962.366     4878191.943 7   3801185.444 7
  23630170.667      466775.460 6    363735.218 3
  23164679.635    -7721645.202 6  -6016838.531 4
  24090640.504     -185447.043 5   -144510.270 2
 91  5  8 20 25  0.0010000  0  5  2 19 11  6 16
  21639387.757    -8369056.873 9  -6521317.392 9
  21701693.637     4929346.734 7   3841046.260 6
  23640295.859      519969.750 7    405185.312 4
  23156699.144    -7763583.027 6  -6049517.211 5
  24098857.200     -142235.988 5   -110839.477 3
 91  5  8 20 25 30.0010000  0  5  2 19 11  6 16
  21634670.230    -8393845.143 9  -6540632.835 8
  21711481.255     4980756.568 7   3881105.800 6
  23650530.185      573771.734 7    447108.899 4
  23148733.957    -7805446.141 6  -6082137.678 5
  24107178.843      -98532.549 6    -76785.043 3
 91  5  8 20 26  0.0010000  0  5  2 19 11  6 16
  21630021.352    -8418284.749 9  -6559676.586 9
  21721311.451     5032421.799 7   3921364.356 7
  23660887.709      628179.851 7    489504.844 2
  23140787.966    -7847234.676 7  -6114700.017 5
  24115585.921      -54338.787 6    -42348.504 2
 91  5  8 20 26 30.0010000  0  5  2 19 11  6 16
  21625433.917    -8442388.981 9  -6578459.007 9
  21731189.914     5084329.594 7   3961811.921 6
  23671349.568      683179.534 6    532361.743 4
  23132838.973    -7888961.494 7  -6147214.269 5
  24124089.238       -9669.860 6     -7541.725 3
 91  5  8 20 27  0.0010000  0  5  2 19 11  6 16
  21620909.756    -8466157.803 9  -6596980.079 9
  21741109.735     5136481.160 7   4002449.443 6
  23681928.048      738769.965 6    575678.932 3
  23124915.160    -7930626.296 7  -6179680.189 4
  24132676.194       35472.682 6     27634.112 2
 91  5  8 20 27 30.0010000  0  5  2 19 11  6 16
  21616449.149    -8489596.974 9  -6615244.265 9
  21751078.434     5188871.129 7   4043272.728 6
  23692619.238      794944.345 6    619451.123 4
  23116999.427    -7972233.884 7  -6212101.539 4
  24141356.682       81081.846 6     63173.545 2
 91  5  8 20 28  0.0010000  0  6  2 19 11  6 16 18
  21612049.687    -8512704.390 9  -6633249.952 9
  21761100.809     5241502.282 7   4084283.958 7
  23703418.060      851703.389 6    663678.929 3
  23109090.012    -8013782.179 7  -6244476.681 5
  24150130.111      127157.901 6     99076.826 3
  23759883.981       20240.51014     15760.032 1
 91  5  8 20 28 30.0010000  0  6  2 19 11  6 16 18
  21607718.892    -8535481.675 9  -6650998.398 9
  21771155.834     5294373.691 7   4125482.386 6
  23714332.613      909044.105 6    708359.992 3
  23101197.069    -8055272.487 7  -6276806.649 4
  24158983.880      173696.853 6    135340.775 2
  23783011.470      141792.377 5    110475.647 2
 91  5  8 20 29  0.0010000  0  6  2 19 11  6 16 18
  21603448.039    -8557932.519 9  -6668492.471 9
  21781261.552     5347482.001 7   4166865.425 6
  23725355.375      966962.004 7    753490.804 4
  23093306.534    -8096707.945 6  -6309093.895 5
  24167924.586      220693.929 6    171961.701 2
  23806180.630      263532.225 5    205337.922 2
 91  5  8 20 29 30.0010000  0  6  2 19 11  6 16 18
  21599235.067    -8580056.165 9  -6685731.590 8
  21791414.612     5400828.951 7   4208434.424 6
  23736486.973     1025456.817 7    799071.129 4
  23085433.990    -8138087.098 6  -6341337.252 6
  24176954.934      268148.346 6    208939.009 1
  23829374.064      385459.046 5    300345.870 1
 91  5  8 20 30  0.0010000  0  6  2 19 11  6 16 18
  21595088.931    -8601849.479 9  -6702713.310 8
  21801612.362     5454417.510 7   4250191.681 6
  23747727.095     1084529.876 7    845102.057 4
  23077573.435    -8179406.845 7  -6373534.323 4
  24186072.534      316061.060 6    246273.463 1
  23852609.482      507573.525 5    395500.069 1
 91  5  8 20 30 30.0010000  0  6  2 19 11  6 16 18
  21591003.067    -8623318.355 9  -6719442.219 9
  21811852.970     5508243.068 7   4292133.608 6
  23759074.832     1144174.240 7    891578.183 2
  23069714.677    -8220672.557 7  -6405689.298 5
  24195278.256      364424.536 6    283959.073 2
  23875886.572      629867.946 5    490794.431 2
 91  5  8 20 31  0.0010000  0  6  2 19 11  6 16 18
  21586975.644    -8644468.280 9  -6735922.607 9
  21822140.938     5562300.606 7   4334256.297 6
  23770533.797     1204383.263 7    938494.278 4
  23061874.504    -8261888.805 7  -6437805.720 6
  24204561.929      413231.294 6    321990.133 3
  23899193.327      752335.613 5    586223.791 2
 91  5  8 20 31 30.0010000  0  6  2 19 11  6 16 18
  21583013.886    -8665292.667 9  -6752149.327 9
  21832472.095     5616597.218 7   4376565.276 6
  23782101.598     1265162.032 7    985854.345 4
  23054043.910    -8303049.124 7  -6469878.581 5
  24213937.338      462485.814 6    360370.089 2
  23922529.486      874980.117 5    681790.949 2
 91  5  8 20 32  0.0010000  0  6  2 19 11  6 16 18
  21579113.588    -8685796.532 9  -6768126.289 9
  21842850.001     5671128.523 7   4419057.143 6
  23793774.311     1326503.715 7   1033653.034 4
  23046217.243    -8344157.966 6  -6501911.318 5
  24223395.496      512181.145 6    399093.528 2
  23945901.295      997794.346 5    777490.407 1
 91  5  8 20 32 30.0010000  0  6  2 19 11  6 16 18
  21575272.341    -8705982.831 9  -6783855.807 9
  21853274.988     5725892.361 7   4461730.195 6
  23805550.468     1388404.678 7   1081887.554 3
  23038406.735    -8385217.575 6  -6533905.695 5
  24232933.994      562312.792 5    438156.937 3
  23969303.992     1120773.941 5    873318.617 3
 91  5  8 20 33  0.0010000  0  6  2 19 11  6 16 18
  21571488.977    -8725856.495 9  -6799341.714 9
  21863740.146     5780884.181 7   4504580.905 6
  23817437.836     1450858.375 6   1130552.756 3
  23030607.640    -8426232.373 7  -6565865.162 5
  24242552.537      612874.554 5    477555.505 2
  23992739.373     1243911.363 5    969269.843 1
 91  5  8 20 33 30.0010000  0  6  2 19 11  6 16 18
  21567770.039    -8745418.080 9  -6814584.442 9
  21874244.880     5836104.209 7   4547609.438 6
  23829425.629     1513863.401 6   1179647.584 3
  23022809.138    -8467202.331 6  -6597789.692 6
  24252257.109      663863.884 5    517287.269 2
  24016196.932     1367204.711 5   1065342.623 3
 91  5  8 20 34  0.0010000  0  6  2 19 11  6 16 18
  21564103.277    -8764667.974 9  -6829584.303 9
  21884796.678     5891552.533 7   4590815.880 7
  23841519.851     1577417.857 6   1229170.514 5
  23015017.842    -8508127.239 7  -6629679.101 5
  24262036.647      715277.878 5    557349.940 4
  24039690.475     1490651.242 5   1161534.707 2
 91  5  8 20 34 30.0010000  0  6  2 19 11  6 16 18
  21560500.976    -8783609.178 9  -6844343.617 9
  21895386.238     5947226.859 7   4634198.412 6
  23853719.613     1641517.047 6   1279117.930 4
  23007231.328    -8549009.809 6  -6661535.541 5
  24271910.015      767111.641 5    597739.669 2
  24063209.791     1614245.910 5   1257842.254 2
 91  5  8 20 35  0.0010000  0  6  2 19 11  6 16 18
  21556955.633    -8802236.140 9  -6858858.070 9
  21906029.474     6003133.460 7   4677761.944 6
  23866018.893     1706165.271 6   1329493.194 4
  22999468.197    -8589843.774 7  -6693354.097 5
  24281850.217      819369.146 5    638459.591 3
  24086752.194     1737992.572 5   1354268.260 1
 91  5  8 20 35 30.0010000  0  6  2 19 11  6 16 18
  21553472.343    -8820545.249 9  -6873124.841 9
  21916710.177     6059277.277 7   4721510.316 6
  23878427.010     1771364.836 6   1380298.012 3
  22991710.476    -8630624.473 7  -6725131.146 4
  24291874.390      872052.434 5    679511.299 1
  24110334.767     1861893.235 5   1450814.176 1
 91  5  8 20 36  0.0010000  0  6  2 19 11  6 16 18
  21550048.418    -8838537.600 9  -6887144.792 9
  21927440.351     6115657.002 7   4765442.511 6
  23890938.851     1837112.939 6   1431530.322 4
  22983956.332    -8671352.966 7  -6756867.505 5
  24301974.995      925157.655 5    720891.799 3
  24133940.724     1985943.728 4   1547477.021 2
 91  5  8 20 36 30.0010000  0  6  2 19 11  6 16 18
  21546680.247    -8856221.299 9  -6900924.234 9
  21938213.993     6172265.646 6   4809553.071 6
  23903555.917     1903400.296 7   1483182.816 3
  22976214.491    -8712036.371 7  -6788568.737 5
  24312165.835      978675.490 5    762593.795 2
  24157576.363     2110134.604 4   1644249.093 2
 91  5  8 20 37  0.0010000  0  6  2 19 11  6 16 18
  21543375.629    -8873588.519 9  -6914457.062 9
  21949033.494     6229111.906 6   4853848.799 6
  23916270.407     1970233.310 7   1535260.491 5
  22968485.842    -8752666.109 7  -6820228.159 4
  24322424.434     1032612.111 5    804622.122 4
  24181235.682     2234472.338 4   1741135.619 1
 91  5  8 20 37 30.0010000  0  6  2 19 11  6 16 18
  21540133.972    -8890635.881 9  -6927740.661 9
  21959892.590     6286199.488 6   4898332.562 7
  23929090.436     2037613.767 7   1587764.707 3
  22960765.586    -8793238.105 7  -6851842.569 5
  24332776.566     1086968.880 5    846977.847 3
  24204931.281     2358957.860 4   1838137.354 1
 91  5  8 20 38  0.0010000  0  5  2 19 11  6 16
  21536951.384    -8907363.879 9  -6940775.402 9
  21970807.126     6343528.955 6   4943004.796 6
  23942018.378     2105540.213 7   1640694.391 3
  22953054.335    -8833752.021 7  -6883411.733 5
  24343194.050     1141743.303 5    889658.993 1
 91  5  8 20 38 30.0010000  0  5  2 19 11  6 16
  21533828.737    -8923763.605 9  -6953554.351 9
  21981763.035     6401109.983 6   4987873.064 6
  23955049.764     2174019.663 7   1694054.975 3
  22945353.554    -8874198.401 7  -6914928.274 4
  24353705.380     1196942.450 5    932671.060 3
 91  5  8 20 39  0.0010000  0  5  2 19 11  6 16
  21530772.663    -8939835.772 9  -6966078.049 9
  21992771.715     6458942.259 6   5032937.112 6
  23968186.672     2243049.948 7   1747844.802 4
  22937669.578    -8914577.377 7  -6946392.291 5
  24364284.156     1252563.139 5    976012.120 4
 91  5  8 20 39 30.0010000  0  5  2 19 11  6 16
  21527775.937    -8955576.053 9  -6978343.134 9
  22003818.470     6517030.288 6   5078200.446 6
  23981425.803     2312633.403 7   1802065.625 2
  22930001.795    -8954884.405 7  -6977800.233 4
  24374948.979     1308607.407 5   1019683.232 3
 91  5  8 20 40  0.0010000  0  5  2 19 11  6 16
  21524843.358    -8970984.870 9  -6990349.937 9
  22014924.278     6575375.023 7   5123663.817 6
  23994777.959     2382768.536 7   1856716.345 3
  22922347.780    -8995118.407 7  -7009151.290 5
  24385694.142     1365074.280 5   1063683.622 3
 91  5  8 20 40 30.0010000  0  5  2 19 11  6 16
  21521971.942    -8986071.331 9  -7002105.552 9
  22026077.759     6633968.146 6   5169320.740 6
  24008224.259     2453444.650 7   1911788.635 2
  22914706.976    -9035287.954 7  -7040452.123 5
  24396513.940     1421951.629 5   1108003.862 2
 91  5  8 20 41  0.0010000  0  5  2 19 11  6 16
  21519161.690    -9000838.880 9  -7013612.665 9
  22037269.613     6692806.929 6   5215169.053 6
  24021775.767     2524656.544 6   1967278.392 2
  22907069.766    -9075395.710 7  -7071704.811 5
  24407419.192     1479234.280 5   1152639.938 2
 91  5  8 20 41 30.0010000  0  5  2 19 11  6 16
  21516412.600    -9015292.708 9  -7024875.320 9
  22048508.827     6751886.706 6   5261205.172 6
  24035424.123     2596397.715 6   2023180.569 4
  22899455.328    -9115445.967 7  -7102912.702 5
  24418392.203     1536914.562 6   1197585.381 2
 91  5  8 20 42  0.0010000  0  5  2 19 11  6 16
  21513721.061    -9029435.505 9  -7035895.606 9
  22059798.123     6811205.343 6   5307427.410 6
  24049178.001     2668663.849 6   2079491.818 4
  22891840.612    -9155440.462 7  -7134077.144 4
  24429448.836     1594988.363 6   1242837.477 3
 91  5  8 20 42 30.0010000  0  5  2 19 11  6 16
  21511088.591    -9043265.606 9  -7046672.253 9
  22071134.779     6870765.198 6   5353837.614 6
  24063026.005     2741455.049 6   2136212.197 3
  22884234.271    -9195377.034 7  -7165196.449 5
  24440575.042     1653455.350 6   1288395.915
 91  5  8 20 43  0.0010000  0  5  2 19 11  6 16
  21508515.765    -9056788.474 9  -7057209.479 9
  22082513.386     6930561.667 7   5400432.181 6
  24076974.749     2814764.057 6   2193336.087 3
  22876646.236    -9235260.062 7  -7196274.035 6
  24451775.587     1712307.817 6   1334254.759 2
 91  5  8 20 43 30.0010000  0  5  2 19 11  6 16
  21505996.617    -9070012.115 9  -7067513.553 9
  22093934.885     6990588.243 7   5447206.079 5
  24091025.438     2888581.590 6   2250856.247 3
  22869068.671    -9275096.441 7  -7227315.273 5
  24463046.281     1771535.887 6   1380406.714 3
 91  5  8 20 44  0.0010000  0  5  2 19 11  6 16
  21503542.506    -9082936.171 9  -7077584.183 9
  22105401.056     7050845.414 7   5494159.667 6
  24105169.345     2962906.449 6   2308771.687 3
  22861497.109    -9314885.155 7  -7258319.365 5
  24474384.734     1831138.542 5   1426850.133 2
 91  5  8 20 44 30.0010000  0  5  2 19 11  6 16
  21501136.976    -9095559.265 9  -7087420.292 9
  22116913.681     7111334.992 7   5541294.343 5
  24119410.084     3037738.017 6   2367081.984 3
  22853933.643    -9354624.130 7  -7289284.706 6
  24485798.137     1891114.376 5   1473584.782 2
 91  5  8 20 45  0.0010000  0  5  2 19 11  6 16
  21498792.591    -9107881.931 9  -7097022.312 9
  22128469.477     7172057.096 7   5588610.206 5
  24133747.061     3113074.319 6   2425785.593 3
  22846382.777    -9394313.034 7  -7320211.030 5
  24497283.189     1951459.993 6   1520607.558 2
 91  5  8 20 45 30.0010000  0  5  2 19 11  6 16
  21496503.681    -9119900.367 9  -7106387.258 9
  22140071.446     7233016.471 7   5636110.967 5
  24148186.261     3188917.056 6   2484883.831 3
  22838837.896    -9433947.095 7  -7351094.618 6
  24508837.485     2012178.517 5   1567920.945 4
 91  5  8 20 46  0.0010000  0  5  2 19 11  6 16
  21494275.323    -9131611.865 9  -7115513.043 9
  22151715.993     7294217.276 7   5683799.844 5
  24162711.212     3265267.817 6   2544377.896 3
  22831308.912    -9473522.465 7  -7381932.474 6
  24520460.446     2073270.321 5   1615525.183 4
 91  5  8 20 46 30.0010000  0  5  2 19 11  6 16
  21492107.518    -9143005.989 9  -7124391.521 9
  22163407.290     7355670.335 7   5731685.294 5
  24177336.885     3342135.263 7   2604274.610 2
  22823789.823    -9513027.794 7  -7412715.743 6
  24532161.638     2134743.604 6   1663426.672 2
 91  5  8 20 47  0.0010000  0  5  2 19 11  6 16
  21490000.282    -9154080.942 9  -7133021.290 9
  22175150.763     7417378.430 7   5779769.464 5
  24192065.985     3419519.789 7   2664574.231 5
  22816289.615    -9552460.034 7  -7443442.051 5
  24543934.183     2196598.115 6   1711625.250 3
 91  5  8 20 47 30.0010000  0  5  2 19 11  6 16
  21487953.005    -9164839.439 9  -7141404.474 9
  22186943.097     7479339.232 7   5828050.544 6
  24206885.914     3497416.760 7   2725273.134 3
  22808804.396    -9591820.962 7  -7474112.795 5
  24555770.002     2258829.336 6   1760117.340 2
 91  5  8 20 48  0.0010000  0  5  2 19 11  6 16
  21485963.278    -9175291.020 9  -7149548.491 9
  22198781.604     7541543.983 7   5876521.714 6
  24221804.193     3575814.763 7   2786362.499 3
  22801317.677    -9631119.296 7  -7504734.774 6
  24567685.849     2321425.178 6   1808893.108 2
 91  5  8 20 48 30.0010000  0  5  2 19 11  6 16
  21484033.808    -9185434.168 9  -7157452.181 9
  22210663.579     7603994.650 7   5925184.491 6
  24236817.505     3654713.191 7   2847841.804 3
  22793846.855    -9670352.682 7  -7535306.137 6
  24579665.859     2384384.888 6   1857952.373 2
 91  5  8 20 49  0.0010000  0  5  2 19 11  6 16
  21482161.906    -9195272.405 9  -7165118.266 9
  22222592.915     7666688.639 7   5974036.871 6
  24251924.647     3734106.895 7   2909707.022 4
  22786395.210    -9709523.476 7  -7565828.733 6
  24591716.002     2447702.971 6   1907291.359 2
 91  5  8 20 49 30.0020000  0  5  2 19 11  6 16
  21480348.465    -9204807.986 9  -7172548.525 9
  22234573.819     7729627.456 7   6023080.030 6
  24267125.012     3813994.937 7   2971957.429 3
  22778952.260    -9748633.615 7  -7596304.066 3
  24603834.519     2511378.361 6   1956908.750 1
 91  5  8 20 50  0.0020000  0  5  2 19 11  6 16
  21478588.977    -9214047.068 9  -7179747.750 9
  22246590.702     7792800.442 7   6072305.653 6
  24282423.425     3894363.786 7   3034582.531 4
  22771520.107    -9787686.249 7  -7626734.585 6
  24616018.086     2575397.735 5   2006793.761 2
 91  5  8 20 50 30.0020000  0  5  2 19 11  6 16
  21476884.666    -9222995.878 9  -7186720.790 9
  22258660.651     7856205.020 7   6121711.738 5
  24297800.976     3975208.663 6   3097578.528 2
  22764101.740    -9826687.375 7  -7657124.968 6
  24628264.300     2639755.339 5   2056942.348 1
 91  5  8 20 51  0.0020000  0  5  2 19 11  6 16
  21475238.797    -9231654.406 9  -7193467.637 9
  22270770.160     7919841.641 6   6171298.640 5
  24313275.969     4056526.941 6   3160943.409 2
  22756692.064    -9865636.007 7  -7687474.440 6
  24640577.383     2704448.619 4   2107352.947 2
 91  5  8 20 51 30.0020000  0  5  2 19 11  6 16
  21473648.995    -9240021.053 9  -7199987.037 9
  22282925.859     7983712.472 6   6221068.045 6
  24328843.587     4138318.679 6   3224677.228 3
  22749291.688    -9904529.764 7  -7717781.164 6
  24652941.717     2769476.600 4   2158024.267 3
 91  5  8 20 52  0.0020000  0  4  2 19 11  6
  21472108.961    -9248097.809 9  -7206280.555 9
  22295120.507     8047816.863 6   6271019.435 6
  24344500.254     4220580.287 6   3288777.198 4
  22741891.609    -9943369.100 7  -7748045.479 7
 91  5  8 20 52 30.0020000  0  4  2 19 11  6
  21470630.700    -9255883.112 9  -7212346.962 9
  22307362.533     8112156.326 6   6321154.002 6
  24360242.357     4303311.195 6   3353242.819 3
  22734520.620    -9982151.690 7  -7778265.572 7
 91  5  8 20 53  0.0020000  0  4  2 19 11  6
  21469202.173    -9263375.010 9  -7218184.745 9
  22319660.016     8176733.895 6   6371474.114 5
  24376075.900     4386511.198 5   3418073.999 2
  22727149.927   -10020874.548 7  -7808439.141 6
 91  5  8 20 53 30.0020000  0  5  2 19 11  6 16
  21467831.528    -9270575.091 9  -7223795.141 9
  22331986.885     8241548.767 6   6421979.134 6
  24391990.673     4470177.664 5   3483268.673 3
  22719791.519   -10059537.741 7  -7838566.191 7
  24703076.315       50889.35515     39644.759 1
 91  5  8 20 54  0.0020000  0  5  2 19 11  6 16
  21466519.045    -9277482.215 9  -7229177.252 9
  22344368.913     8306602.827 6   6472670.531 6
  24408007.390     4554310.082 6   3548826.407 3
  22712447.805   -10098138.758 7  -7868644.806 6
  24715764.438      117560.710 5     91596.678 2
 91  5  8 20 54 30.0020000  0  5  2 19 11  6 16
  21465258.406    -9284094.289 9  -7234329.464 9
  22356792.317     8371899.410 6   6523550.906 6
  24424099.353     4638908.153 6   3614746.970 3
  22705108.278   -10136674.602 7  -7898672.645 6
  24728509.205      184557.660 5    143802.285 1
 91  5  8 20 55  0.0020000  0  5  2 19 11  6 16
  21464056.540    -9290408.932 9  -7239249.910 9
  22369258.578     8437441.564 6   6574622.645 6
  24440290.834     4723972.945 6   3681031.228 3
  22697795.136   -10175141.453 7  -7928646.733 6
  24741323.842      251880.094 5    196261.531 2
 91  5  8 20 55 30.0020000  0  5  2 19 11  6 16
  21462911.631    -9296425.635 9  -7243938.193 9
  22381784.222     8503230.454 6   6625886.625 6
  24456566.268     4809502.724 6   3747677.808 3
  22690482.901   -10213537.535 7  -7958565.669 6
  24754190.027      319526.841 5    248973.509 2
 91  5  8 20 56  0.0020000  0  5  2 19 11  6 16
  21461823.383    -9302148.623 9  -7248397.617 9
  22394347.611     8569262.298 6   6677339.930 6
  24472929.547     4895490.961 6   3814681.612 3
  22683186.861   -10251866.378 7  -7988432.216 7
  24767129.678      387490.914 5    301932.683 2
 91  5  8 20 56 30.0020000  0  5  2 19 11  6 16
  21460787.312    -9307586.313 9  -7252634.720 9
  22406956.894     8635529.837 6   6728976.903 6
  24489378.855     4981927.795 6   3882035.011 2
  22675907.904   -10290134.539 7  -8018251.473 7
  24780123.878      455762.509 5    355131.552 2
 91  5  8 20 57  0.0020000  0  5  2 19 11  6 16
  21459804.882    -9312749.135 9  -7256657.643 9
  22419613.519     8702023.147 7   6780789.799 5
  24505908.521     5068800.525 6   3949728.036 3
  22668634.635   -10328351.434 7  -8048030.782 6
  24793172.348      524328.534 5    408559.814 1
 91  5  8 20 57 30.0020000  0  5  2 19 11  6 16
  21458877.630    -9317636.198 9  -7260465.680 9
  22432305.237     8768743.779 6   6832779.832 5
  24522524.514     5156108.285 6   4017760.052 4
  22661376.654   -10366515.035 7  -8077768.565 7
  24806274.181      593187.176 5    462216.062 2
 91  5  8 20 58  0.0020000  0  5  2 19 11  6 16
  21458001.035    -9322244.836 9  -7264056.772 9
  22445053.005     8835695.359 6   6884949.824 5
  24539222.645     5243851.896 6   4086131.686 3
  22654119.876   -10404621.343 7  -8107461.710 7
  24819433.861      662338.799 4    516100.641 3
 91  5  8 20 58 30.0020000  0  5  2 19 11  6 16
  21457174.209    -9326579.182 9  -7267434.128 9
  22457835.272     8902875.058 7   6937297.583 5
  24555998.132     5332025.514 7   4154838.417 4
  22646880.793   -10442672.634 7  -8137111.976 7
  24832644.217      731778.287 4    570209.524 3
 91  5  8 20 59  0.0020000  0  5  2 19 11  6 16
  21456402.246    -9330633.375 9  -7270593.189 9
  22470662.788     8970289.438 7   6989828.193 6
  24572861.464     5420632.910 7   4223883.121 4
  22639653.994   -10480661.805 7  -8166713.843 7
  24845912.734      801509.038 5    624545.344 3
 91  5  8 20 59 30.0020000  0  5  2 19 11  6 16
  21455683.332    -9334407.860 9  -7273534.294 9
  22483537.070     9037938.595 7   7042541.736 4
  24589802.136     5509671.495 7   4293263.842 4
  22632438.888   -10518588.239 7  -8196266.816 7
  24859245.695      871528.598 5    679106.205 2
 91  5  8 21  0  0.0020000  0  5  2 19 11  6 16
  21455022.597    -9337895.850 9  -7276252.154 9
  22496452.133     9105829.855 7   7095443.960 6
  24606830.651     5599146.424 6   4362984.568 4
  22625237.567   -10556443.648 7  -8225764.450 6
  24872615.843      941840.711 5    733895.049 2
 91  5  8 21  0 30.0020000  0  5  2 19 11  6 16
  21454414.911    -9341094.917 9  -7278744.889 9
  22509419.058     9173966.403 7   7148537.309 5
  24623941.899     5689057.871 6   4433045.425 4
  22618044.360   -10594224.415 7  -8255203.918 7
  24886054.046     1012445.948 5    788912.303 3
 91  5  8 21  1  0.0020000  0  5  2 19 11  6 16
  21453859.401    -9344003.766 9  -7281011.459 9
  22522434.844     9242350.342 7   7201823.410 5
  24641133.801     5779405.484 6   4503446.158 3
  22610869.424   -10631927.595 7  -8284582.932 7
  24899543.797     1083344.063 5    844157.759 1
 91  5  8 21  1 30.0020000  0  5  2 19 11  6 16
  21453360.848    -9346629.907 9  -7283057.753 9
  22535493.208     9310975.091 7   7255297.149 6
  24658409.045     5870179.588 6   4574179.243 3
  22603707.680   -10669559.512 7  -8313906.418 6
  24913089.633     1154524.127 6    899622.912 3
 91  5  8 21  2  0.0020000  0  5  2 19 11  6 16
  21452911.452    -9348973.577 9  -7284883.930 9
  22548601.323     9379841.154 6   7308958.946 5
  24675759.832     5961377.613 6   4645242.650 4
  22596559.722   -10707118.969 7  -8343173.439 7
  24926689.111     1225983.863 6    955306.010 2
 91  5  8 21  2 30.0020000  0  5  2 19 11  6 16
  21452521.423    -9351031.483 9  -7286487.444 9
  22561749.330     9448952.753 6   7362812.062 5
  24693196.962     6053001.036 6   4716637.528 2
  22589427.364   -10744601.311 8  -8372380.373 6
  24940341.062     1297725.066 6   1011208.427 2
 91  5  8 21  3  0.0020000  0  5  2 19 11  6 16
  21452183.255    -9352803.772 9  -7287868.399 9
  22574951.292     9518310.377 6   7416856.881 5
  24710712.338     6145048.023 6   4788362.475 4
  22582311.497   -10782005.039 8  -8401526.051 7
  24954050.878     1369744.860 6   1067327.937 2
 91  5  8 21  3 30.0020000  0  5  2 19 11  6 16
  21451899.951    -9354291.850 9  -7289027.891 9
  22588199.113     9587913.374 6   7471092.893 6
  24728306.852     6237515.396 6   4860414.982 3
  22575206.711   -10819330.021 8  -8430610.354 6
  24967802.941     1442039.793 6   1123661.888 3
 91  5  8 21  4  0.0020000  0  5  2 19 11  6 16
  21451673.011    -9355494.018 9  -7289964.606 9
  22601491.921     9657763.945 6   7525521.824 5
  24745986.505     6330402.151 6   4932794.236 3
  22568115.710   -10856573.379 8  -8459631.067 7
  24981620.687     1514608.628 5   1180209.219 2
 91  5  8 21  4 30.0020000  0  5  2 19 11  6 16
  21451496.746    -9356410.729 9  -7290678.878 9
  22614823.975     9727862.548 6   7580144.021 5
  24763739.624     6423705.779 6   5005498.386 2
  22561049.611   -10893734.201 8  -8488587.471 6
  24995481.290     1587449.554 5   1236968.523 1
 91  5  8 21  5  0.0020000  0  5  2 19 11  6 16
  21451376.828    -9357043.170 9  -7291171.656 9
  22628210.909     9798209.184 6   7634959.501 4
  24781571.268     6517423.418 6   5078525.116 4
  22553994.296   -10930811.720 8  -8517478.953 7
  25009387.752     1660559.133 5   1293937.254 2
 91  5  8 21  5 30.0020000  0  5  2 19 11  6 16
  21451311.163    -9357388.276 9  -7291440.525 9
  22641649.409     9868807.405 6   7689971.017 5
  24799482.975     6611556.410 6   5151875.479 2
  22546951.876   -10967801.326 8  -8546301.934 6
  25023354.488     1733938.201 5   1351115.868 2
 91  5  8 21  6  0.0020000  0  5  2 19 11  6 16
  21451299.768    -9357449.196 9  -7291488.005 9
  22655128.987     9939655.016 6   7745176.850 5
  24817477.116     6706099.580 6   5225545.519 3
  22539930.136   -11004704.581 8  -8575057.629 7
  25037366.786     1807581.683 5   1408500.579 1
 91  5  8 21  6 30.0020000  0  5  2 19 11  6 16
  21451345.348    -9357223.382 9  -7291311.965 9
  22668657.408    10010755.181 6   7800579.488 4
  24835545.001     6801053.058 6   5299535.270 3
  22532923.088   -11041517.701 8  -8603743.073 7
  25051432.761     1881489.192 4   1466090.948 1
 91  5  8 21  7  0.0020000  0  5  2 19 11  6 16
  21451437.380    -9356717.183 9  -7290917.484 9
  22682234.410    10082102.184 6   7856174.465 5
  24853689.354     6896408.431 6   5373838.137 2
  22525934.921   -11078245.336 8  -8632361.910 6
  25065547.875     1955652.002 5   1523880.306 1
 91  5  8 21  7 30.0020000  0  5  2 19 11  6 16
  21451587.871    -9355930.485 9  -7290304.431 9
  22695855.788    10153696.767 6   7911962.373 5
  24871911.342     6992163.538 6   5448452.530 2
  22518966.247   -11114885.984 8  -8660912.972 6
  25079702.288     2030068.273 5   1581867.179 2
 91  5  8 21  8  0.0020000  0  5  2 19 11  6 16
  21451793.225    -9354859.432 9  -7289469.791 9
  22709529.325    10225543.771 6   7967946.947 3
  24890213.358     7088320.138 6   5523379.800 3
  22512007.170   -11151434.200 8  -8689391.997 7
  25093916.939     2104739.405 5   1640052.596 1
 91  5  8 21  8 30.0020000  0  5  2 19 11  6 16
  21452048.051    -9353507.029 9  -7288415.936 9
  22723247.221    10297640.800 6   8024126.387 4
  24908587.041     7184873.554 6   5598616.223 3
  22505069.068   -11187891.246 8  -8717799.986 7
  25108175.372     2179660.771 5   1698432.980 2
 91  5  8 21  9  0.0020000  0  5  2 19 11  6 16
  21452363.446    -9351869.830 9  -7287140.142 9
  22737014.291    10369991.962 6   8080503.833 4
  24927035.376     7281825.094 6   5674162.915 2
  22498150.161   -11224252.126 8  -8746133.049 6
  25122482.073     2254832.952 5   1757008.780 1
 91  5  8 21  9 30.0020000  0  5  2 19 11  6 16
  21452728.888    -9349948.513 9  -7285642.964 9
  22750834.130    10442596.947 6   8137079.068 3
  24945560.754     7379171.927 6   5750017.622 3
  22491248.932   -11260516.241 8  -8774390.695 7
  25136823.534     2330252.646 5   1815777.534 1
 91  5  8 21 10  0.0020000  0  5  2 19 11  6 16
  21453148.287    -9347738.291 9  -7283920.660 9
  22764699.829    10515462.205 6   8193857.113 5
  24964157.469     7476917.149 6   5826182.700 4
  22484370.492   -11296676.593 8  -8802567.495 6
  25151226.176     2405922.941 5   1874741.565 1
 91  5  8 21 10 30.0020000  0  5  2 19 11  6 16
  21453623.770    -9345241.620 9  -7281975.150 9
  22778619.798    10588585.530 6   8250836.264 4
  24982835.449     7575055.842 6   5902654.421 3
  22477504.652   -11332734.153 8  -8830664.202 6
  25165677.364     2481839.278 5   1933897.254 1
 91  5  8 21 11  0.0020000  0  5  2 19 11  6 16
  21454151.692    -9342459.878 9  -7279807.516 9
  22792579.327    10661966.484 6   8308016.140 5
  25001582.671     7673584.313 6   5979429.887 4
  22470660.990   -11368688.883 8  -8858680.773 7
  25180168.427     2557997.817 5   1993241.652 2
 91  5  8 21 11 30.0020000  0  5  2 19 11  6 16
  21454738.089    -9339388.469 9  -7277414.155 9
  22806591.921    10735610.610 6   8365401.082 4
  25020407.530     7772505.013 6   6056510.936 4
  22463844.010   -11404534.285 8  -8886612.156 7
  25194708.664     2634400.853 5   2052776.564 2
 91  5  8 21 12  0.0020000  0  5  2 19 11  6 16
  21455376.051    -9336030.665 9  -7274797.629 9
  22820655.785    10809514.848 6   8422988.714 5
  25039303.149     7871812.799 6   6133893.629 2
  22457043.818   -11440272.122 8  -8914459.740 6
  25209296.574     2711042.387 5   2112497.313 2
 91  5  8 21 12 30.0020000  0  5  2 19 11  6 16
  21456067.673    -9332389.579 9  -7271960.370 9
  22834768.823    10883677.104 6   8480777.387 4
  25058277.923     7971502.722 6   6211574.116 2
  22450264.303   -11475903.551 8  -8942224.401 6
  25223927.640     2787917.813 5   2172400.335 1
 91  5  8 21 13  0.0020000  0  5  2 19 11  6 16
  21456815.956    -9328473.254 9  -7268908.634 9
  22848930.111    10958090.303 6   8538761.593 3
  25077319.827     8071564.612 6   6289544.417 1
  22443501.594   -11511434.910 8  -8969911.091 6
  25238594.077     2865016.878 5   2232477.590 2
 91  5  8 21 13 30.0020000  0  5  2 19 11  6 16
  21457609.505    -9324281.514 9  -7265642.290 9
  22863139.073    11032754.517 6   8596941.407 4
  25096431.899     8171996.049 6   6367802.674 1
  22436762.860   -11546864.548 8  -8997518.525 7
  25253305.500     2942336.792 5   2292726.918 2
 91  5  8 21 14  0.0020000  0  5  2 19 11  6 16
  21458458.824    -9319814.708 9  -7262161.619 9
  22877393.004    11107669.732 6   8655316.801 4
  25115609.322     8272794.292 6   6446346.741 1
  22430037.006   -11582191.406 8  -9025045.858 7
  25268063.079     3019874.461 4   2353145.988 2
 91  5  8 21 14 30.0020000  0  5  2 19 11  6 16
  21459361.193    -9315071.821 9  -7258465.810 9
  22891701.502    11182838.721 6   8713889.947 5
  25134861.397     8373958.770 6   6525176.162 1
  22423333.644   -11617412.071 8  -9052490.457 7
  25282866.239     3097629.765 4   2413734.582 1
 91  5  8 21 15  0.0020000  0  5  2 19 11  6 16
  21460316.924    -9310059.440 9  -7254560.007 9
  22906049.280    11258255.868 6   8772656.431 5
  25154181.231     8475481.024 5   6604284.442 2
  22416653.369   -11652531.314 8  -9079856.030 7
  25297685.574     3175594.040 4   2474486.062 1
 91  5  8 21 15 30.0020000  0  5  2 19 11  6 16
  21461321.236    -9304773.725 9  -7250441.225 9
  22920453.999    11333924.853 6   8831619.185 4
  25173568.196     8577362.111 5   6683672.310 3
  22409987.194   -11687544.090 8  -9107138.635 7
  25312577.765     3253767.403 4   2535400.376 2
 91  5  8 21 16  0.0020000  0  5  2 19 11  6 16
  21462381.005    -9299221.429 9  -7246114.704 9
  22934902.796    11409840.309 6   8890773.993 3
  25193019.639     8679593.394 5   6763333.073 2
  22403341.697   -11722454.902 8  -9134341.795 8
  25327486.149     3332141.734 4   2596471.319 3
 91  5  8 21 16 30.0020000  0  5  2 19 11  6 16
  21463487.244    -9293388.109 9  -7241569.225 9
  22949393.265    11486016.784 6   8950132.156 4
  25212540.622     8782186.995 5   6843276.114 2
  22396722.865   -11757247.956 8  -9161453.193 8
  25342443.394     3410728.928 5   2657708.107 4
 91  5  8 21 17  0.0020000  0  6  2 19 11 15  6 16
  21464651.034    -9287278.389 9  -7236808.364 9
  22963940.395    11562450.078 6   9009690.442 4
  25232134.163     8885136.166 5   6923496.265 2
  25406098.333      -41583.374 5    -32403.044 2
  22390124.431   -11791926.006 8  -9188474.986 7
  25357439.901     3489522.067 5   2719105.357 3
 91  5  8 21 17 30.0020000  0  6  2 19 11 15  6 16
  21465867.890    -9280887.810 9  -7231828.649 9
  22978525.601    11639145.319 6   9069452.862 5
  25251794.241     8988443.377 5   7003995.398 2
  25397960.459      -84339.600 5    -65719.729 3
  22383550.585   -11826482.565 8  -9215402.107 7
  25372477.504     3568523.305 5   2780664.761 4
 91  5  8 21 18  0.0020000  0  6  2 19 11 15  6 16
  21467137.812    -9274219.872 9  -7226632.825 9
  22993182.144    11716100.352 5   9129417.713 4
  25271521.486     9092102.780 6   7084768.960 4
  25389874.464     -126828.884 5    -98828.469 2
  22376995.324   -11860919.206 8  -9242235.781 7
  25387542.068     3647727.499 5   2842382.302 2
 91  5  8 21 18 30.0020000  0  6  2 19 11 15  6 16
  21468457.188    -9267274.047 9  -7221220.452 9
  23007868.980    11793316.794 6   9189586.253 5
  25291309.282     9196113.167 6   7165816.025 5
  25381841.815     -169047.174 5   -131726.060 2
  22370465.557   -11895233.357 8  -9268974.009 6
  25402651.618     3727133.010 5   2904256.698 2
 91  5  8 21 19  0.0020000  0  6  2 19 11 15  6 16
  21469831.149    -9260049.694 9  -7215591.065 9
  23022614.274    11870795.504 6   9249959.157 4
  25311166.339     9300472.698 6   7247135.158 4
  25373854.745     -210990.160 5   -164409.072 2
  22363960.046   -11929422.749 8  -9295615.027 7
  25417805.527     3806737.444 5   2966286.108 3
 91  5  8 21 19 30.0020000  0  5  2 19 11 15  6
  21471262.346    -9252546.871 9  -7209744.674 9
  23037408.726    11948536.734 6   9310536.638 5
  25331095.639     9405178.524 6   7328724.109 5
  25365928.525     -252655.170 5   -196875.435 2
  22357477.639   -11963486.094 8  -9322157.832 7
 91  5  8 21 20  0.0020000  0  5  2 19 11 15  6
  21472741.531    -9244764.982 9  -7203680.827 9
  23052253.853    12026541.686 6   9371319.582 5
  25351084.916     9510229.632 6   7410582.146 3
  25358056.574     -294037.567 5   -229121.532 1
  22351021.303   -11997420.588 8  -9348600.215 7
 91  5  8 21 20 30.0020000  0  5  2 19 11 15  6
  21474275.876    -9236699.442 9  -7197395.959 9
  23067144.857    12104815.041 6   9432311.693 4
  25371141.620     9615628.649 6   7492711.276 4
  25350239.488     -335128.816 5   -261140.562 1
  22344587.460   -12031219.653 8  -9374937.084 7
 91  5  8 21 21  0.0020000  0  5  2 19 11 15  6
  21475865.364    -9228350.655 9  -7190890.380 9
  23082088.909    12183357.990 6   9493513.880 4
  25391265.194     9721372.680 6   7575109.210 2
  25342478.172     -375925.414 5   -292930.309 2
  22338184.190   -12064881.868 8  -9401167.302 8
 91  5  8 21 21 30.0020000  0  5  2 19 11 15  6
  21477505.231    -9219723.092 9  -7184167.576 9
  23097082.729    12262166.335 6   9554922.859 5
  25411451.117     9827455.230 6   7657770.984 3
  25334759.103     -416429.254 4   -324491.928 1
  22331801.912   -12098409.755 8  -9427292.855 8
 91  5  8 21 22  0.0020000  0  5  2 19 11 15  6
  21479202.352    -9210820.502 9  -7177230.458 9
  23112132.303    12341236.597 6   9616535.960 4
  25431699.093     9933869.931 5   7740691.524 2
  25327111.405     -456640.155 5   -355825.188 2
  22325445.112   -12131805.470 8  -9453315.419 7
 91  5  8 21 22 30.0020000  0  5  2 19 11 15  6
  21480946.553    -9201642.385 9  -7170078.647 9
  23127228.661    12420570.596 6   9678354.536 4
  25452017.534    10040615.543 5   7823869.953 2
  25319522.166     -496553.848 5   -386926.527 1
  22319119.199   -12165066.026 8  -9479232.648 8
 91  5  8 21 23  0.0020000  0  5  2 19 11 15  6
  21482745.008    -9192191.869 9  -7162714.574 9
  23142384.960    12500165.622 6   9740376.527 4
  25472386.039    10147686.683 5   7907302.052 1
  25311973.987     -536170.051 5   -417796.525 3
  22312816.965   -12198193.015 8  -9505045.819 8
 91  5  8 21 23 30.0020000  0  5  2 19 11 15  6
  21484596.825    -9182471.475 9  -7155140.200 9
  23157574.537    12580019.654 6   9802600.317 4
  25492820.784    10255078.751 5   7990984.188 2
  25304498.052     -575487.248 5   -448433.415 2
  22306537.801   -12231186.720 8  -9530755.120 8
 91  5  8 21 24  0.0020000  0  5  2 19 11 15  6
  21486496.002    -9172480.268 9  -7147354.813 9
  23172820.496    12660134.198 6   9865027.131 6
  25513320.288    10362790.090 5   8074915.166 2
  25297073.997     -614501.137 5   -478834.020 1
  22300282.038   -12264044.438 8  -9556358.453 8
 91  5  8 21 24 30.0020000  0  5  2 19 11 15  6
  21488448.559    -9162221.727 9  -7139361.104 9
  23188113.204    12740506.357 6   9927654.666 4
  25533880.065    10470815.016 5   8159090.462 3
  25289702.100     -653212.044 5   -508998.493 1
  22294056.550   -12296767.646 8  -9581856.973 9
 91  5  8 21 25  0.0020000  0  5  2 19 11 15  6
  21490449.977    -9151695.435 9  -7131158.759 9
  23203459.885    12821137.083 6   9990483.703 3
  25554492.000    10579151.614 5   8243508.540 2
  25282391.069     -691615.932 5   -538923.653 2
  22287856.540   -12329354.220 8  -9607249.025 8
 91  5  8 21 25 30.0020000  0  5  2 19 11 15  6
  21492507.445    -9140899.162 9  -7122746.049 9
  23218851.221    12902029.373 6  10053516.536 3
  25575166.582    10687800.060 5   8328169.717 2
  25275144.186     -729707.038 5   -568604.884 2
  22281677.820   -12361799.808 8  -9632531.222 8
 91  5  8 21 26  0.0020000  0  5  2 19 11 15  6
  21494611.993    -9129831.861 9  -7114122.144 9
  23234297.439    12983184.606 6  10116754.276 3
  25595903.217    10796759.229 5   8413072.933 3
  25267964.451     -767480.921 5   -598039.260 2
  22275533.877   -12394101.260 8  -9657701.110 8
 91  5  8 21 26 30.0020000  0  5  2 19 11 15  6
  21496769.887    -9118494.658 9  -7105287.925 9
  23249789.498    13064602.590 6  10180196.728 3
  25616702.533    10906025.893 5   8498215.817 1
  25260827.294     -804934.553 4   -627224.055 1
  22269414.801   -12426257.523 8  -9682757.860 8
 91  5  8 21 27  0.0020000  0  5  2 19 11 15  6
  21498978.160    -9106884.619 9  -7096241.103 9
  23265336.734    13146286.763 6  10243846.637 3
  25637547.394    11015600.807 5   8583598.930 2
  25253764.179     -842062.010 4   -656154.690 1
  22263326.612   -12458263.717 8  -9707697.684 8
 91  5  8 21 27 30.0020000  0  5  2 19 11 15  6
  21501240.703    -9094999.984 9  -7086980.313 9
  23280927.143    13228238.984 6  10307705.375 3
  25658451.620    11125483.481 5   8669221.790 2
  25246764.024     -878857.646 4   -684826.344 2
  22257261.510   -12490116.353 8  -9732517.847 8
 91  5  8 21 28  0.0020000  0  5  2 19 11 15  6
  21503551.199    -9082847.717 9  -7077510.978 9
  23296576.009    13310453.048 6  10371768.164 3
  25679424.496    11235664.712 5   8755077.235 3
  25239822.938     -915325.588 4   -713243.078 2
  22251232.686   -12521820.103 8  -9757222.005 9
 91  5  8 21 28 30.0020000  0  5  2 19 11 15  6
  21505916.855    -9070432.013 9  -7067836.366 9
  23312268.658    13392924.923 6  10436031.836 3
  25700442.655    11346137.688 5   8841160.130 3
  25232941.794     -951466.231 5   -741404.800 1
  22245221.854   -12553377.435 8  -9781812.062 8
 91  5  8 21 29  0.0020000  0  5  2 19 11 15  6
  21508326.887    -9057752.992 9  -7057956.588 9
  23328014.653    13475655.153 6  10500496.836 3
  25721522.553    11456899.920 5   8927468.383 2
  25226141.008     -987276.814 5   -769309.297 2
  22239248.784   -12584786.461 8  -9806286.558 8
 91  5  8 21 29 30.0020000  0  5  2 19 11 15  6
  21510792.394    -9044812.468 9  -7047873.030 9
  23343797.817    13558643.344 6  10565162.845 4
  25742651.940    11567948.357 5   9013999.630 3
  25219377.391    -1022754.868 5   -796954.702 1
  22233296.410   -12616046.147 8  -9830644.693 9
 91  5  8 21 30  0.0020000  0  5  2 19 11 15  6
  21513302.555    -9031612.430 9  -7037587.248 9
  23359641.550    13641887.299 6  10630028.138 5
  25763843.955    11679278.443 5   9100750.407 2
  25212691.113    -1057899.070 5   -824339.590 2
  22227375.516   -12647157.029 8  -9854886.875 8
 91  5  8 21 30 30.0020000  0  5  2 19 11 15  6
  21515864.579    -9018158.476 9  -7027103.620 9
  23375540.757    13725381.965 6  10695088.796 2
  25785076.159    11790881.917 5   9187714.139 2
  25206069.296    -1092711.880 5   -851466.640 2
  22221486.679   -12678122.631 8  -9879015.872 8
 91  5  8 21 31  0.0020000  0  5  2 19 11 15  6
  21518470.664    -9004449.036 9  -7016420.905 9
  23391466.925    13809129.511 6  10760346.514 3
  25806368.618    11902758.103 5   9274890.384 2
  25199511.941    -1127188.211 5   -878331.472 3
  22215621.853   -12708939.342 8  -9903028.830 8
 91  5  8 21 31 30.0020000  0  5  2 19 11 15  6
  21521129.240    -8990481.516 9  -7005537.088 9
  23407450.051    13893132.749 6  10825803.443 3
  25827707.250    12014907.442 5   9362279.517 2
  25193005.243    -1161322.234 5   -904929.607 2
  22209787.878   -12739602.368 8  -9926922.049 8
 91  5  8 21 32  0.0020000  0  5  2 19 11 15  6
  21523838.159    -8976246.343 9  -6994444.709 9
  23423490.152    13977402.289 6  10891467.910 3
  25849105.545    12127337.591 6   9449887.433 3
  25186579.794    -1195100.092 5   -931249.818 1
  22203982.400   -12770099.718 8  -9950686.158 8
 91  5  8 21 32 30.0020000  0  5  2 19 11 15  6
  21526599.551    -8961741.410 9  -6983142.130 9
  23439573.721    14061940.795 6  10957341.948 4
  25870553.293    12240048.199 6   9537713.946 2
  25180216.694    -1228516.920 4   -957289.101 5
  22198211.404   -12800427.242 8  -9974317.940 9
 91  5  8 21 33  0.0020000  0  5  2 19 11 15  6
  21529410.991    -8946968.844 9  -6971631.008 9
  23455713.340    14146745.725 6  11023423.581 4
  25892057.406    12353034.575 5   9625755.292 2
  25173930.044    -1261571.708 4   -983046.277 2
  22192474.278   -12830585.541 8  -9997817.852 9
 91  5  8 21 33 30.0020000  0  4  2 19 15  6
  21532271.919    -8931937.058 9  -6959917.891 9
  23471899.150    14231809.108 5  11089706.572 4
  25167714.747    -1294269.644 4  -1008525.025 2
  22186764.131   -12860580.618 8 -10021190.586 9
 91  5  8 21 34  0.0020000  0  4  2 19 15  6
  21535178.707    -8916640.330 9  -6947998.331 9
  23488132.302    14317137.376 5  11156196.036 3
  25161556.408    -1326600.644 4  -1033718.244 2
  22181090.559   -12890404.426 8 -10044429.852 9
 91  5  8 21 34 30.0020000  0  4  2 19 15  6
  21538143.656    -8901081.060 9  -6935874.191 9
  23504425.431    14402728.730 5  11222890.476 4
  25155469.127    -1358564.054 4  -1058624.715 2
  22175447.263   -12920057.272 8 -10067535.912 8
 91  5  8 21 35  0.0020000  0  4  2 19 15  6
  21541152.963    -8885262.562 9  -6923548.044 9
  23520760.824    14488580.494 5  11289787.802 4
  25149462.186    -1390160.248 4  -1083245.372 2
  22169839.339   -12949540.383 9 -10090509.705 9
 91  5  8 21 35 30.0020000  0  4  2 19 15  6
  21544209.962    -8869190.255 9  -6911024.138 9
  23537150.470    14574687.933 5  11356884.365 4
  25143523.598    -1421391.268 4  -1107581.104 2
  22164255.706   -12978856.732 8 -10113353.553 8
 91  5  8 21 36  0.0020000  0  4  2 19 15  6
  21547318.195    -8852862.927 9  -6898301.507 9
  23553583.601    14661052.112 5  11424181.005 3
  25137653.973    -1452252.806 4  -1131628.828 3
  22158712.836   -13008003.136 8 -10136064.989 8
 91  5  8 21 36 30.0020000  0  4  2 19 15  6
  21550473.822    -8836276.498 9  -6885376.983 9
  23570067.374    14747677.845 5  11491681.426 5
  25131839.787    -1482736.844 4  -1155382.476 2
  22153196.054   -13036973.229 8 -10158639.011 8
 91  5  8 21 37  0.0020000  0  4  2 19 15  6
  21553676.199    -8819436.860 9  -6872255.171 9
  23586597.633    14834559.050 5  11559380.928 4
  25126117.651    -1512846.721 5  -1178844.487 3
  22147718.553   -13065771.131 8 -10181078.872 9
 91  5  8 21 37 30.0020000  0  4  2 19 15  6
  21556926.547    -8802356.856 9  -6858946.044 9
  23603180.959    14921683.956 5  11627270.319 2
  25120454.567    -1542591.137 5  -1202021.817 1
  22142271.031   -13094407.107 8 -10203392.556 9
 91  5  8 21 38  0.0030000  0  4  2 19 15  6
  21560226.368    -8785040.621 9  -6845452.844 9
  23619811.648    15009050.919 5  11695348.344 4
  25114866.138    -1571973.051 5  -1224916.570 3
  22136848.973   -13122884.772 8 -10225582.889 9
 91  5  8 21 38 30.0030000  0  4  2 19 15  6
  21563566.654    -8767483.760 9  -6831772.138 9
  23636480.410    15096659.561 5  11763614.678 3
  25109340.073    -1600981.745 5  -1247520.573 1
  22131462.003   -13151194.671 8 -10247642.490 9
 91  5  8 21 39  0.0030000  0  4  2 19 15  6
  21566951.316    -8749685.426 9  -6817903.279 9
  23653195.939    15184513.623 5  11832072.232 2
  25103894.331    -1629614.217 5  -1269831.398 2
  22126108.311   -13179334.906 8 -10269569.896 9
 91  5  8 21 39 30.0030000  0  4  2 19 15  6
  21570382.727    -8731645.163 9  -6803845.909 9
  23669966.017    15272614.356 5  11900722.039 4
  25098517.256    -1657867.018 5  -1291846.794 2
  22120787.600   -13207302.964 8 -10291363.125 9
 91  5  8 21 40  0.0030000  0  4  2 19 15  6
  21573860.032    -8713368.507 9  -6789604.326 9
  23686769.687    15360956.547 5  11969559.935 3
  25093212.738    -1685742.454 5  -1313567.766 4
  22115497.462   -13235102.066 9 -10313024.709 9
 91  5  8 21 40 30.0030000  0  4  2 19 15  6
  21577381.992    -8694858.233 9  -6775180.716 9
  23703637.207    15449537.058 5  12038583.590 1
  25087982.856    -1713240.581 5  -1334995.094 3
  22110239.398   -13262733.020 9 -10334555.272 9
 91  5  8 21 41  0.0030000  0  4  2 19 15  6
  21580949.811    -8676113.201 9  -6760574.171 9
  23720531.112    15538358.139 5  12107794.704 3
  25082822.826    -1740356.313 5  -1356124.037 2
  22105013.110   -13290191.715 9 -10355951.613 9
 91  5  8 21 41 30.0030000  0  4  2 19 15  6
  21584561.727    -8657138.261 9  -6745788.475 9
  23737480.787    15627414.915 5  12177189.442 3
  25077730.556    -1767091.273 5  -1376956.710 2
  22099821.914   -13317481.466 9 -10377216.304 9
 91  5  8 21 42  0.0030000  0  4  2 19 15  6
  21588217.687    -8637927.283 9  -6730818.851 9
  23754472.117    15716713.517 5  12246772.618 3
  25072723.722    -1793436.908 5  -1397485.966 1
  22094662.775   -13344593.746 9 -10398342.712 9
 91  5  8 21 42 30.0030000  0  4  2 19 15  6
  21591919.820    -8618475.110 9  -6715661.286 9
  23771505.135    15806259.783 5  12316548.791 2
  25067781.035    -1819385.146 5  -1417705.625 2
  22089535.726   -13371521.310 9 -10419325.182 9
 91  5  8 21 43  0.0030000  0  4  2 19 15  6
  21595667.831    -8598777.514 9  -6700312.487 9
  23788600.502    15896057.897 5  12386521.191 2
  25062923.191    -1844928.191 5  -1437609.047 1
  22084447.347   -13398257.791 8 -10440158.756 9
 91  5  8 21 43 30.0030000  0  4  2 19 15  6
  21599463.497    -8578833.951 9  -6684772.021 9
  23805735.726    15986108.702 5  12456690.517 2
  25058145.409    -1870062.083 5  -1457194.104 2
  22079397.045   -13424800.062 9 -10460840.995 9
 91  5  8 21 44  0.0030000  0  4  2 19 15  6
  21603305.651    -8558644.715 9  -6669040.130 9
  23822923.440    16076412.591 4  12527057.043 4
  25053441.965    -1894784.465 5  -1476458.486 3
  22074383.615   -13451146.084 9 -10481370.318 8
 91  5  8 21 44 30.0030000  0  4  2 19 15  6
  21607193.647    -8538202.845 9  -6653111.382 9
  23840150.400    16166976.731 4  12597626.343 2
  25048809.874    -1919085.431 6  -1495394.160 2
  22069410.373   -13477286.688 9 -10501739.569 9
 91  5  8 21 45  0.0030000  0  4  2 19 15  6
  21611132.318    -8517507.239 9  -6636984.920 9
  23857438.540    16257802.495 4  12668399.513 1
  25044268.612    -1942960.182 6  -1513998.055 2
  22064474.579   -13503218.333 9 -10521946.004 9
 91  5  8 21 45 30.0030000  0  4  2 19 15  6
  21615119.867    -8496560.021 9  -6620662.407 9
  23874768.648    16348887.837 4  12739374.932 2
  25039803.503    -1966408.275 6  -1532269.045 3
  22059579.862   -13528940.891 9 -10541989.499 8
 91  5  8 21 46  0.0030000  0  4  2 19 15  6
  21619151.478    -8475364.197 9  -6604146.173 9
  23892154.509    16440229.656 4  12810550.232 2
  25035431.037    -1989429.141 5  -1550207.190 2
  22054727.428   -13554455.317 9 -10561870.806 8
 91  5  8 21 46 30.0030000  0  4  2 19 15  6
  21623232.840    -8453925.008 9  -6587440.309 9
  23909576.039    16531823.302 4  12881921.740 2
  25031126.312    -2012024.967 5  -1567814.533 3
  22049906.160   -13579764.382 9 -10581592.096 9
 91  5  8 21 47  0.0030000  0  4  2 13 15  6
  21627361.282    -8432238.861 9  -6570541.997 9
  24283284.126     -215824.986 4   -168175.753 1
  25026908.525    -2034189.865 5  -1585085.702 1
  22045131.675   -13604862.183 8 -10601148.769 9
 91  5  8 21 47 30.0030000  0  4  2 13 15  6
  21631531.099    -8410311.153 9  -6553455.463 9
  24264386.709     -315120.869 5   -245549.167 1
  25022774.394    -2055926.207 5  -1602022.867 3
  22040399.141   -13629751.822 8 -10620543.239 9
 91  5  8 21 48  0.0030000  0  4  2 13 15  6
  21635750.387    -8388142.868 9  -6536181.467 9
  24245527.665     -414214.592 5   -322764.872 1
  25018711.599    -2077232.127 5  -1618625.111 4
  22035695.697   -13654431.848 8 -10639774.375 8
 91  5  8 21 48 30.0030000  0  4  2 13 15  6
  21640012.533    -8365737.484 9  -6518722.720 9
  24226707.606     -513106.169 5   -399823.196 2
  25014745.060    -2098107.340 5  -1634891.337 3
  22031044.132   -13678903.448 8 -10658843.106 9
 91  5  8 21 49  0.0030000  0  4  2 13 15  6
  21644323.854    -8343091.903 9  -6501076.805 9
  24207933.702     -611789.113 5   -476718.895 2
  25010846.856    -2118546.732 5  -1650817.939 3
  22026427.014   -13703161.612 8 -10677745.521 9
 91  5  8 21 49 30.0030000  0  4  2 13 15  6
  21648678.032    -8320203.715 9  -6483241.850 9
  24189195.466     -710257.539 4   -553447.383 1
  25007047.280    -2138544.766 5  -1666400.661 2
  22021854.289   -13727201.588 8 -10696477.924 8
 91  5  8 21 50  0.0030000  0  4  2 13 15  6
  21653078.977    -8297083.410 9  -6465226.012 9
  24170489.321     -808517.583 4   -630013.475 1
  25003323.264    -2158108.533 5  -1681644.951 2
  22017314.824   -13751031.197 8 -10715046.399 9
 91  5  8 21 50 30.0030000  0  4  2 13 15  6
  21657522.204    -8273738.814 9  -6447035.409 9
  24151825.441     -906573.511 4   -706420.803 2
  24999673.586    -2177242.886 5  -1696554.759 2
  22012822.144   -13774655.615 8 -10733454.998 9
 91  5  8 21 51  0.0030000  0  4  2 13 15  6
  21662007.102    -8250169.650 9  -6428669.803 9
  24133214.923    -1004421.218 4   -782665.687 1
  24996123.147    -2195945.562 5  -1711128.060 3
  22008364.520   -13798072.646 8 -10751701.992 9
 91  5  8 21 51 30.0030000  0  4  2 13 15  6
  21666531.577    -8226381.142 9  -6410133.295 9
  24114634.088    -1102062.497 4   -858749.666 1
  24992638.059    -2214218.493 5  -1725366.581 2
  22003949.179   -13821285.229 8 -10769789.683 9
 91  5  8 21 52  0.0030000  0  4  2 13 15  6
  21671101.004    -8202374.689 9  -6391426.948 9
  24096093.127    -1199494.570 4   -934670.956 2
  24989248.896    -2232060.426 5  -1739269.183 3
  21999566.819   -13844291.968 8 -10787716.966 9
 91  5  8 21 52 30.0030000  0  4  2 13 15  6
  21675711.822    -8178143.893 9  -6372545.781 9
  24077579.144    -1296708.148 4  -1010421.938 2
  24985940.997    -2249462.399 5  -1752829.049 1
  21995234.209   -13867084.856 8 -10805477.611 9
 91  5  8 21 53  0.0030000  0  4  2 13 15  6
  21680366.999    -8153687.039 9  -6353488.470 9
  24059141.000    -1393697.794 4  -1085998.253 1
  24982709.828    -2266419.367 5  -1766042.043 2
  21990934.597   -13889659.461 8 -10823068.161 9
 91  5  8 21 53 30.0030000  0  4  2 13 15  6
  21685063.237    -8129003.053 9  -6334254.171 9
  24040723.848    -1490458.513 4  -1161396.270 2
  24979570.412    -2282927.530 6  -1778905.472 2
  21986685.626   -13912012.238 8 -10840485.867 9
 91  5  8 21 54  0.0030000  0  4  2 13 15  6
  21689804.164    -8104093.910 9  -6314844.427 9
  24022335.786    -1586988.039 4  -1236614.077 1
  24976515.524    -2298986.224 6  -1791418.966 1
  21982470.858   -13934142.762 8 -10857730.372 9
 91  5  8 21 54 30.0030000  0  4  2 13 15  6
  21694586.449    -8078954.319 9  -6295255.108 9
  24004027.750    -1683278.114 3  -1311645.140 2
  24973543.979    -2314587.632 6  -1803575.780 2
  21978305.543   -13956043.575 8 -10874795.894 9
 91  5  8 21 55  0.0030000  0  3  2 15  6
  21699414.907    -8053588.875 9  -6275489.808 9
  24970661.465    -2329733.270 6  -1815377.340 3
  21974177.694   -13977716.727 8 -10891684.014 9
 91  5  8 21 55 30.0030000  0  3  2 15  6
  21704282.645    -8027992.925 9  -6255544.888 9
  24967868.906    -2344416.003 6  -1826818.289 2
  21970098.723   -13999155.039 8 -10908389.138 9
 91  5  8 21 56  0.0030000  0  3  2 15  6
  21709199.540    -8002158.559 9  -6235414.181 9
  24965162.378    -2358625.504 6  -1837890.376 4
  21966067.705   -14020348.710 9 -10924903.630 9
 91  5  8 21 56 30.0030000  0  3  2 15  6
  21714162.295    -7976084.229 9  -6215096.510 9
  24962552.977    -2372357.368 6  -1848590.348 3
  21962079.877   -14041293.641 9 -10941224.306 9
 91  5  8 21 57  0.0030000  0  3  2 15  6
  21719168.832    -7949768.668 9  -6194590.849 9
  24960029.030    -2385607.702 6  -1858915.088 2
  21958142.096   -14061985.829 9 -10957348.037 9
 91  5  8 21 57 30.0030000  0  3  2 15  6
  21724224.824    -7923210.110 9  -6173895.841 9
  24957601.320    -2398372.072 6  -1868861.526
  21954253.786   -14082421.537 9 -10973271.918 9
 91  5  8 21 58  0.0030000  0  3  2 15  6
  21729326.395    -7896403.083 9  -6153007.239 9
  24955265.033    -2410642.445 5  -1878422.741 2
  21950417.338   -14102593.126 9 -10988989.991 9
 91  5  8 21 58 30.0030000  0  3  2 15  6
  21734475.640    -7869345.044 9  -6131923.028 9
  24953018.684    -2422414.096 5  -1887595.210
  21946628.564   -14122495.553 9 -11004498.339 9
 91  5  8 21 59  0.0030000  0  3  2 15  6
  21739670.133    -7842032.861 9  -6110640.794 9
  24950876.966    -2433681.420 5  -1896375.178 3
  21942894.043   -14142123.143 9 -11019792.523 9
 91  5  8 21 59 30.0030000  0  3  2 15  6
  21744915.617    -7814474.513 9  -6089166.736 9
  24948835.081    -2444449.685 5  -1904765.829 3
  21939210.494   -14161481.481 9 -11034876.891 9
 91  5  8 22  0  0.0030000  0  3  2 15  6
  21750206.348    -7786667.071 9  -6067498.586 9
  24946871.443    -2454713.385 5  -1912763.741 3
  21935577.620   -14180565.196 9 -11049747.272 9
 91  5  8 22  0 30.0030000  0  3  2 15  6
  21755545.958    -7758607.258 9  -6045633.778 9
  24945020.219    -2464466.977 5  -1920364.158 2
  21931999.296   -14199368.943 9 -11064399.512 9
 91  5  8 22  1  0.0030000  0  3  2 15  6
  21760933.520    -7730298.121 9  -6023574.705 9
  24943264.937    -2473710.327 5  -1927566.583 3
  21928474.335   -14217892.877 9 -11078833.710 9
 91  5  8 22  1 30.0030000  0  3  2 15  6
  21766368.757    -7701730.850 9  -6001314.495 9
  24941600.186    -2482432.944 5  -1934363.169 3
  21925006.942   -14236126.138 9 -11093041.410 9
 91  5  8 22  2  0.0030000  0  3  2 15  6
  21771854.966    -7672904.502 9  -5978852.396 9
  24940044.569    -2490632.109 5  -1940751.964 2
  21921592.004   -14254065.404 9 -11107020.011 9
 91  5  8 22  2 30.0030000  0  3  2 15  6
  21777388.535    -7643823.299 9  -5956191.706 9
  24938578.280    -2498308.747 5  -1946733.514 3
  21918231.319   -14271712.206 9 -11120770.720 9
 91  5  8 22  3  0.0030000  0  3  2 15  6
  21782970.371    -7614483.541 9  -5933329.549 9
  24937218.419    -2505456.455 5  -1952302.931 1
  21914932.407   -14289060.524 9 -11134288.846 9
 91  5  8 22  3 30.0030000  0  3  2 15  6
  21788601.661    -7584892.292 9  -5910271.428 9
  24935959.299    -2512080.378 5  -1957464.277 2
  21911687.156   -14306115.155 9 -11147578.130 9
 91  5  8 22  4  0.0030000  0  3  2 15  6
  21794283.330    -7555045.291 9  -5887014.018 9
  24934803.291    -2518174.322 5  -1962212.556 3
  21908497.360   -14322869.237 8 -11160633.213 9
 91  5  8 22  4 30.0030000  0  4  2 13 15  6
  21800011.765    -7524937.960 9  -5863553.753 9
  23648719.731      -55694.56715    -43398.566 1
  24933737.834    -2523731.773 5  -1966542.937 3
  21905369.025   -14339316.456 8 -11173449.199 9
 91  5  8 22  5  0.0030000  0  4  2 13 15  6
  21805788.171    -7494579.926 9  -5839898.129 9
  23631583.600     -145745.653 5   -113568.443 1
  24932790.793    -2528759.192 5  -1970460.651 2
  21902298.554   -14355463.717 8 -11186031.446 9
 91  5  8 22  5 30.0030000  0  4  2 13 15  6
  21811611.640    -7463970.583 9  -5816046.694 9
  23614510.115     -235458.226 5   -183474.412 2
  24931927.391    -2533254.243 5  -1973963.192 2
  21899282.947   -14371307.820 8 -11198377.473 9
 91  5  8 22  6  0.0030000  0  4  2 13 15  6
  21817484.877    -7433109.484 9  -5791999.067 9
  23597503.796     -324827.929 5   -253113.317 2
  24931179.405    -2537214.228 6  -1977048.697 4
  21896326.392   -14386845.903 8 -11210485.030 9
 91  5  8 22  6 30.0030000  0  4  2 13 15  6
  21823406.678    -7401997.057 9  -5767755.612 9
  23580561.013     -413851.752 5   -322482.551 2
  24930524.655    -2540637.562 6  -1979716.152 4
  21893425.904   -14402076.095 8 -11222352.674 9
 91  5  8 22  7  0.0030000  0  4  2 13 15  6
  21829376.730    -7370633.546 9  -5743316.493 9
  23563683.895     -502526.565 5   -391580.015 1
  24929976.631    -2543522.083 6  -1981963.655 2
  21890585.654   -14416996.109 8 -11233978.613 9
 91  5  8 22  7 30.0030000  0  4  2 13 15  6
  21835392.081    -7339018.192 9  -5718681.137 9
  23546884.431     -590848.723 5   -460402.554 2
  24929532.052    -2545864.697 5  -1983788.983 3
  21887804.194   -14431603.278 8 -11245360.782 9
 91  5  8 22  8  0.0030000  0  4  2 13 15  6
  21841456.573    -7307154.917 9  -5693852.589 9
  23530139.516     -678818.897 5   -528950.873 2
  24929188.474    -2547667.565 5  -1985193.698 1
  21885087.475   -14445898.970 9 -11256500.243 9
 91  5  8 22  8 30.0030000  0  4  2 13 15  6
  21847565.440    -7275043.695 9  -5668830.840 9
  23513465.065     -766433.013 5   -597221.672 2
  24928944.154    -2548928.669 5  -1986176.258 3
  21882426.212   -14459880.477 9 -11267394.886 9
 91  5  8 22  9  0.0030000  0  4  2 13 15  6
  21853721.982    -7242692.029 9  -5643621.736 9
  23496860.468     -853694.936 5   -665218.171 2
  24928811.340    -2549653.498 5  -1986741.000 3
  21879826.408   -14473553.129 9 -11278048.853 9
 91  5  8 22  9 30.0030000  0  4  2 13 15  6
  21859923.789    -7210095.796 9  -5618222.043 9
  23480326.317     -940598.033 5   -732935.029 2
  24928772.374    -2549835.720 5  -1986882.879 4
  21877283.580   -14486910.452 9 -11288457.112 9
 91  5  8 22 10  0.0030000  0  4  2 13 15  6
  21866173.271    -7177261.051 9  -5592636.502 9
  23463857.202    -1027144.553 5   -800374.060 1
  24928838.633    -2549479.823 5  -1986605.488 2
  21874798.285   -14499956.373 9 -11298622.718 9
 91  5  8 22 10 30.0030000  0  4  2 13 15  6
  21872467.407    -7144188.201 9  -5566865.432 9
  23447454.661    -1113331.029 5   -867532.484 2
  24929017.305    -2548583.746 5  -1985907.090 2
  21872377.765   -14512688.483 9 -11308543.796 9
 91  5  8 22 11  0.0030000  0  4  2 13 15  6
  21878805.326    -7110873.765 9  -5540906.117 9
  23431130.663    -1199151.847 5   -934405.981 2
  24929288.918    -2547142.017 5  -1984783.570 3
  21870015.704   -14525101.206 9 -11318215.998 9
